GFSFLT1_sfc_temp_000.txt.gz
Temp
78 79 78 77 77 77 76 76 76 76 74 74 73 74 74 74 72 70 68 67 66 66 67 68 68 68 68 68 68 69 69 68 68
76 77 78 77 78 77 77 77 76 76 74 74 73 74 73 71 70 67 67 66 66 67 67 68 68 68 68 68 68 69 69 68 68
75 77 78 78 78 78 78 79 79 77 77 75 74 74 72 71 69 68 67 66 66 65 66 68 68 68 68 68 68 69 68 68 68
76 76 77 77 77 79 79 80 80 78 77 76 74 73 72 71 69 68 67 67 67 67 66 67 67 67 67 68 68 68 67 67 68
72 74 76 77 77 78 78 78 80 79 78 77 77 74 72 71 71 69 70 67 68 67 67 66 67 67 67 68 68 68 67 67 69
70 71 70 74 75 76 76 77 78 79 79 78 78 75 70 70 69 69 67 67 67 67 67 66 67 67 67 67 67 67 67 67 67
68 70 70 71 72 74 76 76 76 77 78 79 77 74 70 69 68 69 68 67 67 67 67 67 67 67 67 67 67 67 68 67 67
68 67 68 70 72 72 71 71 72 75 77 76 75 72 71 71 70 70 68 66 67 67 67 68 67 67 67 67 68 71 68 67 67
68 68 71 71 71 71 70 71 71 74 74 75 74 72 71 72 69 67 66 66 66 66 67 66 67 66 67 67 70 66 66 68 68
71 71 70 68 69 70 71 70 71 71 73 73 71 71 71 70 67 66 66 66 66 66 65 66 66 66 67 67 68 63 63 66 67
70 69 68 68 69 70 70 71 72 71 71 71 70 70 70 68 67 66 65 65 64 65 65 65 66 66 66 66 67 62 61 64 66
69 70 70 70 71 70 68 69 70 70 68 69 69 69 68 67 68 67 67 66 65 67 66 65 65 66 66 65 65 60 59 61 64
69 69 70 70 71 70 70 68 69 68 67 68 68 68 68 68 68 66 66 67 67 66 65 65 65 65 64 61 63 59 58 59 62
69 69 70 71 70 69 68 67 67 66 66 67 68 68 69 69 68 67 67 65 64 63 64 64 64 63 62 63 63 64 57 55 61
69 69 70 71 69 69 67 67 68 65 65 66 67 67 67 66 66 67 64 63 62 63 62 62 62 63 61 60 63 56 56 53 56
66 66 67 68 69 67 66 66 67 64 63 66 66 65 64 65 65 65 64 63 62 62 62 62 62 62 62 63 58 56 52 52 51
65 65 65 66 66 63 62 63 64 64 65 65 64 63 63 64 64 63 63 62 63 62 61 60 61 62 61 60 56 55 56 57 56
63 63 63 64 63 62 62 63 63 64 65 65 63 63 62 62 62 63 63 62 60 61 59 57 61 61 61 58 56 56 52 52 55
62 63 63 62 61 62 62 62 63 63 65 66 64 63 61 61 61 62 61 54 52 46 45 45 44 46 53 55 50 46 45 43 43
60 62 63 62 61 62 62 62 63 64 63 63 62 62 60 61 61 61 58 56 54 53 49 43 42 43 44 46 46 44 42 41 41

GFSFLT1_sfc_temp_003.txt.gz
Temp
87 87 89 87 86 86 84 84 83 83 82 81 81 81 81 82 82 84 84 82 83 82 82 82 81 79 80 79 79 78 78 80 80
86 87 88 87 87 87 85 84 83 83 82 82 82 82 82 81 82 82 83 81 80 82 80 82 80 80 79 79 78 78 78 80 78
87 87 87 89 88 87 87 87 86 85 84 83 84 83 83 83 82 82 82 81 78 79 80 80 79 79 79 79 78 78 77 79 79
88 87 86 89 88 88 88 88 88 86 85 84 84 84 83 83 83 82 82 78 78 73 76 78 78 78 78 79 78 78 77 77 78
89 87 86 87 87 87 88 87 88 88 87 87 86 85 83 82 82 76 76 78 73 75 73 77 78 78 78 78 79 79 77 77 79
83 83 84 86 87 85 86 87 86 88 88 89 89 86 84 82 80 79 79 71 76 72 71 72 77 77 76 77 78 78 78 77 77
83 81 82 83 84 84 85 85 84 85 88 90 89 88 85 82 80 80 73 72 68 70 69 71 71 73 75 77 78 78 79 78 76
80 80 80 82 82 82 82 83 82 84 86 87 88 85 84 81 80 79 74 68 67 67 67 67 70 71 73 76 77 81 77 77 77
79 80 80 82 83 82 81 82 81 82 83 85 85 82 82 81 78 74 72 71 68 67 67 67 70 71 71 72 75 69 67 73 77
81 82 82 82 82 82 82 83 83 82 82 84 82 80 80 78 75 72 72 72 71 68 65 66 69 71 71 73 73 65 64 66 77
83 84 83 82 84 82 81 85 85 84 83 80 79 78 78 76 74 73 72 72 71 69 67 69 71 72 73 73 75 62 61 63 73
84 82 83 83 84 84 81 82 82 81 80 80 78 77 76 74 74 73 72 72 71 71 70 71 70 72 72 72 72 60 60 64 68
83 84 83 81 82 82 82 80 82 80 79 78 77 77 76 75 74 73 72 73 72 72 72 69 72 71 72 67 71 58 58 63 63
81 81 80 82 83 81 80 80 81 79 78 77 78 77 75 74 74 74 75 74 73 72 71 71 70 69 71 70 69 67 57 55 65
80 81 81 84 81 80 79 80 81 77 75 75 74 75 71 71 73 75 74 72 71 71 71 70 69 70 72 70 73 57 57 54 55
77 78 78 82 82 78 77 77 78 73 71 70 71 70 69 70 71 70 71 71 70 71 71 70 70 73 71 71 67 67 53 52 52
76 77 77 79 79 77 73 73 72 72 72 73 71 69 69 71 71 71 71 74 73 73 73 65 63 65 71 69 70 69 68 66 65
75 75 75 77 77 76 74 73 73 73 73 73 72 71 72 71 73 71 72 69 69 72 69 62 69 72 76 74 71 69 61 62 68
73 72 74 74 74 71 70 72 72 72 73 74 73 72 72 72 72 71 72 67 62 46 46 45 45 45 62 66 52 47 46 46 45
67 75 75 74 73 72 71 72 72 73 73 73 72 71 71 72 68 72 71 68 68 68 55 44 42 43 46 49 47 43 42 41 42

GFSFLT1_sfc_temp_006.txt.gz
Temp
100 98 99 97 95 94 92 92 92 91 89 86 87 87 86 87 87 90 90 89 92 91 91 91 89 85 85 85 85 84 83 84 84
99 98 98 98 96 96 94 93 92 91 89 88 88 89 87 86 87 87 90 90 89 91 89 92 88 86 85 85 85 83 82 84 82
99 99 99 100 98 97 96 96 95 93 91 89 89 90 89 88 88 87 88 89 87 87 89 87 87 85 85 84 83 83 81 83 83
101 100 98 99 100 100 98 98 97 95 93 91 90 91 90 89 89 89 88 88 86 86 86 85 84 83 83 84 82 82 80 80 82
105 103 100 100 101 100 98 97 98 97 96 94 93 93 90 89 89 89 88 85 84 81 83 83 82 81 80 80 83 82 80 80 82
101 98 98 98 100 97 97 97 97 98 98 98 98 94 92 90 89 89 88 85 84 83 82 77 77 76 76 78 77 82 81 81 81
98 94 94 95 96 95 95 96 95 95 98 100 99 98 94 91 89 89 87 86 78 77 79 76 71 73 73 77 80 80 80 81 81
98 93 92 92 93 93 92 92 93 93 96 96 98 95 95 92 90 89 85 82 79 77 77 77 72 73 74 77 78 78 80 81 81
97 93 92 92 92 92 91 91 91 92 92 94 94 92 92 92 88 86 83 79 77 78 76 75 73 73 75 75 78 73 70 76 81
96 95 93 92 92 93 92 92 91 91 90 92 91 89 89 88 86 83 80 79 78 76 75 74 77 77 76 75 77 67 67 68 81
98 96 95 93 96 94 92 95 95 93 91 88 88 86 86 86 84 81 80 78 76 76 77 76 76 77 76 77 80 65 63 66 78
96 97 97 94 96 92 90 93 92 90 89 87 86 85 84 84 83 80 78 76 76 78 77 77 78 79 78 77 78 60 61 65 80
95 95 95 93 93 91 91 91 92 89 88 86 85 85 84 83 82 81 78 77 77 76 77 78 80 78 78 74 76 59 59 64 81
93 92 91 91 90 89 88 90 91 88 88 87 88 87 85 82 81 80 79 77 75 76 76 75 76 76 78 76 70 74 56 57 73
88 88 90 92 89 87 89 90 89 86 85 87 86 85 82 78 78 78 80 75 73 71 72 73 74 73 74 76 79 61 56 55 58
89 90 91 92 89 85 86 87 87 85 82 82 82 78 75 75 77 76 75 72 70 72 74 77 73 70 76 72 78 67 54 53 53
86 87 87 89 87 85 82 82 83 82 80 80 80 76 76 74 73 74 74 74 74 75 76 75 73 74 69 68 69 73 73 62 66
83 83 85 87 85 84 80 80 80 81 80 79 77 74 75 74 75 73 74 71 68 78 70 70 79 76 70 69 69 74 66 67 78
79 81 82 82 82 81 80 80 79 80 78 78 77 76 77 79 80 79 77 75 73 46 48 46 46 46 60 65 54 48 46 45 45
70 78 78 81 80 80 79 79 79 80 80 79 78 79 79 82 78 82 80 79 78 75 58 44 43 43 45 48 47 45 43 43 42

GFSFLT1_sfc_temp_009.txt.gz
Temp
107 104 104 103 100 99 97 96 95 94 91 88 89 89 88 88 88 91 92 90 93 92 93 94 89 87 87 86 86 85 84 84 84
104 105 104 103 102 100 98 96 95 93 92 89 90 90 89 88 88 88 91 90 90 93 91 94 91 88 86 86 86 85 83 83 83
104 106 104 104 103 101 100 99 97 96 94 91 91 91 91 90 89 89 90 91 90 90 91 90 89 87 86 85 85 84 82 83 83
105 105 104 105 104 103 101 101 99 97 95 93 92 92 91 91 90 90 90 90 90 90 90 89 88 85 85 84 82 82 81 81 83
105 106 106 106 106 104 102 101 100 98 97 95 94 94 92 91 91 91 90 89 90 89 87 88 86 85 83 84 80 75 81 80 82
103 106 106 106 106 104 103 101 100 101 100 100 99 95 94 92 91 91 90 89 90 88 87 86 86 85 82 81 82 82 82 81 76
103 104 101 104 104 104 104 102 98 99 101 102 101 99 97 92 91 91 91 90 88 89 86 85 84 83 81 81 81 81 82 81 81
101 102 101 100 101 101 99 99 97 98 101 101 102 98 97 94 92 92 91 89 88 87 86 85 83 83 80 79 83 85 80 82 81
99 101 103 100 99 100 98 98 98 97 97 100 100 96 96 95 92 90 89 88 87 84 83 83 82 80 77 78 83 74 70 78 81
99 101 103 101 99 99 99 98 97 97 96 99 97 95 95 95 92 89 88 87 84 81 79 81 80 79 77 77 80 65 67 69 82
101 103 104 103 103 100 98 101 100 99 97 94 94 92 92 93 91 89 87 84 81 79 79 79 79 77 78 78 79 65 65 68 80
104 105 107 105 103 101 97 99 98 96 94 92 92 90 90 90 90 87 86 82 81 79 77 77 78 77 75 76 79 63 62 68 78
102 104 107 103 101 101 97 97 97 93 92 90 89 90 89 89 88 86 84 83 79 79 79 78 81 79 75 73 78 60 60 66 73
100 102 102 101 99 95 94 96 95 90 90 89 91 91 90 88 86 85 84 81 79 79 77 76 74 74 76 79 77 75 57 58 72
97 98 97 97 94 92 93 94 92 89 88 90 90 89 87 85 84 85 81 77 79 77 75 74 75 75 77 81 78 63 57 56 57
92 92 93 95 92 89 91 91 91 88 87 88 87 86 84 82 79 79 79 78 75 74 74 73 76 75 76 76 74 71 56 54 55
91 92 91 91 90 87 86 89 89 87 86 86 84 80 76 76 76 76 76 77 76 73 74 76 78 76 74 74 74 75 74 65 68
89 88 89 89 86 84 83 85 84 85 84 84 82 80 77 76 77 76 73 72 72 75 72 71 79 78 77 77 75 69 64 63 68
84 85 85 84 84 83 83 83 82 82 82 83 81 79 80 79 79 76 74 73 68 46 49 45 45 48 62 71 54 47 46 46 48
72 84 84 84 83 83 82 82 81 80 81 81 80 82 83 84 80 84 81 81 80 76 59 46 44 45 47 51 50 45 45 45 46

GFSFLT1_sfc_temp_012.txt.gz
Temp
102 102 103 101 98 96 92 92 91 90 86 83 85 85 83 83 84 86 86 86 86 86 85 86 82 82 81 81 79 79 78 78 77
102 102 102 101 99 98 94 92 91 89 86 85 85 86 84 83 83 84 86 85 85 87 84 88 82 82 81 81 79 79 78 77 75
102 104 102 102 101 99 97 96 94 92 89 86 86 86 86 86 85 84 85 84 84 84 85 85 82 82 82 80 79 77 76 75 77
102 103 103 103 102 101 98 97 94 93 91 87 86 86 86 86 86 86 85 85 85 84 84 83 82 81 80 80 79 78 76 75 76
102 101 102 104 104 102 99 96 95 94 93 91 89 87 86 86 86 86 85 84 85 85 84 84 82 82 80 80 78 78 75 75 77
99 102 103 102 105 100 98 97 95 95 94 94 92 89 88 86 86 85 85 84 85 85 84 83 83 81 80 79 78 77 76 75 75
100 98 99 100 101 99 98 96 92 92 94 95 94 91 89 86 86 86 86 85 84 85 84 83 83 81 80 80 79 77 77 77 76
97 98 98 99 100 95 93 92 91 92 94 93 94 90 90 87 87 86 86 85 85 85 84 84 83 81 80 80 79 81 77 77 76
95 96 99 97 97 97 95 93 91 92 92 92 93 89 89 88 86 85 84 84 84 84 84 83 82 80 80 78 78 73 71 76 77
96 97 98 98 97 96 97 97 93 91 91 93 91 88 88 87 86 85 84 85 84 83 82 82 80 80 79 76 76 66 66 71 77
92 97 98 98 102 97 96 102 101 96 94 90 89 88 88 88 87 85 84 84 84 83 82 81 79 78 74 74 76 67 64 66 72
98 99 100 99 103 99 95 97 96 94 93 91 90 89 88 88 88 86 85 84 83 82 80 78 76 74 72 71 73 63 62 64 72
102 103 103 101 102 99 96 95 98 93 92 90 89 89 89 89 88 86 84 83 80 78 77 76 77 73 73 70 73 63 61 63 75
99 100 100 102 97 94 92 94 95 89 90 88 90 90 89 88 87 85 84 82 79 76 76 77 74 73 74 74 71 72 58 58 72
95 99 100 99 95 92 92 93 90 87 86 88 88 87 86 84 84 85 83 79 76 76 75 73 72 72 71 71 74 62 57 56 59
95 97 95 97 91 89 90 89 87 84 84 85 84 84 82 82 82 79 78 76 75 74 75 74 72 73 72 71 73 72 55 55 56
90 91 90 90 87 85 84 85 86 85 84 84 83 80 79 78 76 75 76 75 76 75 74 74 75 73 72 71 71 71 69 67 62
87 86 86 86 84 84 83 83 82 84 83 82 78 77 76 75 74 74 72 65 68 75 65 65 74 73 74 75 73 73 66 66 68
79 79 79 79 80 80 79 81 81 82 82 81 79 76 75 73 74 72 73 69 65 47 48 46 46 49 68 64 52 49 48 48 48
72 77 77 79 81 81 80 79 79 81 82 81 78 77 76 78 75 77 74 73 71 67 56 47 45 45 51 56 49 46 45 46 47

GFSFLT1_sfc_temp_015.txt.gz
Temp
87 90 93 91 88 89 87 87 85 83 81 80 81 80 79 80 77 81 80 77 76 79 80 80 77 77 76 74 74 74 72 70 70
89 91 94 92 91 90 87 87 84 84 81 81 81 81 80 80 80 79 80 77 77 77 79 79 78 77 76 76 74 72 72 70 69
87 88 90 93 92 90 88 89 87 86 83 81 82 82 81 80 81 81 82 76 78 77 78 77 78 76 77 75 75 72 71 69 70
87 90 90 94 93 92 89 90 88 86 83 82 82 82 82 81 81 81 81 78 77 77 78 76 77 77 76 76 74 73 70 69 69
91 87 94 95 94 93 89 88 88 86 84 83 83 83 82 82 81 81 80 81 79 77 79 77 78 78 76 76 76 74 72 70 72
86 86 83 93 94 92 89 88 88 88 86 84 84 83 82 82 81 81 81 80 81 79 80 79 78 78 77 76 75 73 73 71 68
92 87 87 86 93 91 91 89 88 88 87 86 85 84 83 81 82 82 82 82 81 80 80 78 78 78 77 77 75 74 73 70 68
86 86 85 83 89 90 89 88 88 88 88 88 86 84 83 82 83 83 82 81 81 81 80 79 77 75 76 75 74 75 69 71 70
86 87 86 84 87 90 89 88 86 88 87 88 88 84 83 83 83 82 81 81 80 79 79 77 77 75 75 73 76 70 69 72 71
85 88 85 85 84 88 90 88 88 86 87 89 87 85 84 83 83 81 81 80 79 78 79 79 77 77 75 73 74 66 66 69 70
82 87 86 85 90 83 88 90 90 89 88 86 86 84 83 83 82 81 81 80 79 80 79 79 76 75 73 73 70 65 64 67 68
86 87 91 87 83 84 85 91 90 88 86 85 85 82 82 83 82 81 81 79 80 80 77 76 74 73 71 69 68 63 62 65 68
83 84 90 92 92 88 89 86 90 87 86 84 84 85 83 84 84 82 80 81 79 75 76 72 72 70 70 67 68 62 61 62 69
82 81 83 84 86 86 86 84 90 87 87 86 86 87 80 83 83 81 81 77 75 73 72 73 70 69 70 71 69 66 59 58 69
80 80 80 83 80 81 80 82 86 82 83 82 82 81 80 79 80 80 76 74 72 71 72 71 70 70 69 69 67 63 57 57 58
80 79 79 78 82 79 79 79 83 79 77 80 80 79 77 77 77 75 73 72 71 70 70 70 69 70 67 66 68 64 57 55 55
74 75 78 79 77 76 75 77 79 78 79 80 78 76 74 74 73 72 72 71 71 71 70 70 70 68 66 66 65 63 59 58 57
73 74 75 78 77 75 75 77 77 79 78 77 74 73 71 71 71 68 59 54 57 66 57 63 66 67 67 65 65 64 60 59 59
65 66 72 74 75 74 74 75 74 74 74 74 71 70 70 70 68 66 64 62 57 47 47 47 47 51 61 55 55 51 50 51 52
61 63 69 72 72 73 72 72 73 74 73 73 72 70 69 69 69 68 67 65 61 56 52 47 45 46 51 53 48 47 46 45 47

GFSFLT1_sfc_temp_018.txt.gz
Temp
85 87 88 87 86 86 86 85 82 81 79 79 79 78 78 78 78 78 77 74 74 75 78 79 76 75 75 71 71 69 69 68 67
85 87 88 89 87 87 86 85 82 81 79 80 80 79 79 78 78 79 78 73 74 75 78 78 75 76 75 73 71 70 69 67 67
86 89 91 92 90 88 87 87 84 83 81 81 80 80 80 80 79 79 79 75 74 75 76 77 75 75 75 73 72 70 69 67 67
87 89 87 89 90 89 88 88 84 82 81 81 80 80 81 80 79 80 78 77 76 77 76 76 76 75 75 74 72 71 69 67 67
88 90 88 88 90 90 88 86 85 83 81 82 82 81 80 80 79 79 79 79 77 76 77 76 76 76 75 74 74 72 71 68 70
85 88 83 83 90 87 87 86 86 84 82 82 82 82 80 80 79 78 78 79 80 76 77 75 76 75 75 74 74 72 72 70 69
81 81 84 84 88 89 88 86 86 84 83 83 83 82 81 79 79 79 79 79 79 79 78 75 75 75 75 75 74 73 72 71 69
84 84 83 85 89 88 87 85 85 85 84 83 83 81 80 80 80 80 80 79 78 79 78 78 75 74 74 74 74 74 72 71 70
79 83 84 85 89 89 88 86 85 85 84 83 83 81 80 81 80 79 79 78 78 77 77 74 73 73 74 72 75 70 68 72 69
80 81 85 82 87 89 89 87 87 85 85 85 82 81 81 80 80 78 78 78 77 76 76 76 73 73 73 72 73 66 66 68 67
78 80 81 78 87 89 90 90 88 87 86 84 82 81 81 80 79 78 78 78 77 76 77 76 74 73 73 73 72 65 64 67 69
81 81 82 79 80 85 89 89 88 86 85 84 83 81 80 80 80 78 78 77 76 78 77 76 75 75 73 72 71 62 61 65 67
80 78 80 82 78 80 85 88 89 85 83 83 82 83 82 82 81 79 78 78 78 79 77 76 75 73 73 69 67 59 60 63 68
76 77 79 80 79 80 84 89 87 85 84 82 85 85 84 81 81 80 80 78 77 75 75 74 72 69 68 69 68 64 58 58 68
77 79 78 79 75 76 81 84 87 84 83 85 85 84 81 79 80 80 78 76 75 74 73 71 68 67 67 67 67 61 57 57 59
70 71 74 76 75 76 75 79 86 84 84 82 81 80 79 79 80 79 75 74 72 71 71 69 67 67 66 66 66 63 57 55 55
66 67 68 72 71 71 71 74 83 85 80 81 80 79 76 76 75 74 74 72 72 71 69 68 67 66 66 65 64 62 60 57 56
62 61 60 63 66 70 71 73 74 78 80 79 76 74 74 73 71 69 63 57 64 68 63 68 68 66 66 64 63 62 58 57 59
60 61 61 60 58 58 57 60 73 75 76 76 72 71 69 67 64 63 62 60 56 49 49 49 52 54 61 58 55 50 48 46 46
59 61 60 62 62 62 62 63 65 72 72 73 72 69 66 65 64 64 63 61 60 56 51 46 46 49 51 54 52 48 46 45 45

GFSFLT1_sfc_temp_021.txt.gz
Temp
83 83 84 84 84 84 84 82 80 79 77 77 77 77 77 78 79 78 78 74 74 76 74 74 76 74 73 71 69 69 67 65 65
82 83 84 84 85 85 85 84 81 79 78 78 77 77 78 77 78 78 77 73 75 75 75 75 74 75 73 71 70 69 67 65 65
79 83 84 86 86 87 86 86 84 82 81 79 79 78 79 78 78 78 77 75 74 73 75 75 73 74 74 72 70 69 68 65 65
81 81 84 86 87 89 87 87 84 82 81 80 80 79 79 79 78 78 77 76 75 74 74 74 74 74 74 72 70 69 69 66 66
81 84 85 87 89 88 86 85 85 81 82 81 81 81 80 79 79 78 77 77 77 75 75 74 75 74 73 72 72 70 70 67 69
78 81 82 84 81 82 85 85 85 82 82 81 82 81 80 79 79 77 77 77 78 75 76 74 75 74 73 72 72 70 70 70 68
75 78 81 79 78 80 83 84 84 82 82 82 82 81 80 79 78 78 78 79 78 78 76 73 74 74 74 74 73 72 71 70 68
75 77 81 78 84 79 81 82 83 83 82 82 83 80 79 79 79 79 78 77 78 78 76 76 74 73 73 73 73 74 71 69 68
72 76 82 84 87 86 84 85 83 83 82 81 82 80 79 80 79 79 78 77 76 76 75 75 73 72 72 71 74 69 68 72 69
75 76 81 78 86 88 89 87 86 83 82 83 81 80 80 79 78 77 77 77 76 75 75 74 71 72 72 71 72 67 66 69 69
74 76 77 79 85 81 83 87 87 87 84 81 80 79 79 79 78 77 77 76 76 75 75 73 72 71 72 72 72 65 63 67 69
76 76 78 78 81 86 86 86 86 85 83 81 79 78 79 79 79 78 77 76 75 76 76 74 73 72 72 72 71 62 61 63 69
75 76 74 75 75 76 79 84 86 83 81 81 79 79 80 80 80 78 77 77 76 77 76 75 74 73 73 69 71 60 59 64 67
72 73 74 74 70 76 80 81 83 81 82 80 82 82 82 81 80 79 78 78 76 75 75 75 74 74 73 71 67 62 57 60 67
66 67 68 69 69 70 71 75 82 80 80 83 83 83 81 80 80 79 78 76 75 75 74 74 73 71 70 69 66 59 57 59 60
63 63 65 69 68 67 67 71 75 78 81 82 81 81 81 79 79 79 76 74 74 74 74 73 71 70 69 67 67 65 56 55 56
62 62 63 63 64 65 63 66 68 72 81 80 79 79 80 79 77 77 75 75 75 75 73 71 69 69 67 66 65 62 61 58 56
59 60 60 62 64 63 61 60 61 64 66 72 75 78 75 75 75 74 72 62 68 73 69 68 69 68 67 66 64 63 59 58 60
58 58 59 60 61 62 63 63 63 66 63 70 71 71 72 72 72 65 62 61 58 54 53 55 55 55 59 62 56 50 49 47 48
58 65 64 62 60 61 60 60 61 62 64 69 72 72 68 66 64 65 66 66 65 62 59 51 46 50 49 51 49 47 45 44 45

GFSFLT1_sfc_temp_024.txt.gz
Temp
81 80 81 82 82 80 80 79 78 77 75 74 76 75 75 76 76 77 77 75 76 75 75 76 75 75 75 74 72 72 70 70 69
78 81 81 82 83 82 80 80 78 77 76 75 76 76 76 75 76 76 76 75 75 76 75 77 75 75 75 74 72 72 70 70 69
78 81 82 83 83 84 83 83 81 79 78 76 77 77 77 77 77 77 77 76 74 74 75 76 75 75 75 73 72 71 70 69 69
79 81 81 83 84 85 84 85 82 80 79 77 77 77 77 77 77 77 77 76 75 75 75 74 75 75 74 73 72 71 70 69 69
76 78 80 83 85 85 85 83 84 80 80 79 79 78 77 77 77 77 76 76 76 75 74 75 75 75 74 74 72 72 71 70 71
72 74 76 78 82 82 83 83 83 82 81 82 81 79 78 78 77 76 76 76 77 75 75 74 75 75 74 73 73 71 72 72 71
73 72 73 75 77 82 83 82 81 81 81 82 82 81 78 77 77 77 77 76 77 76 75 74 75 74 74 74 74 73 72 72 71
72 73 72 71 76 77 77 78 79 80 80 80 81 79 79 78 77 78 77 76 76 77 75 75 75 75 74 74 74 75 72 71 71
71 72 73 73 75 76 76 78 78 80 78 79 80 78 78 78 77 77 76 76 76 76 75 75 74 74 74 74 76 70 68 72 71
70 72 73 72 75 78 78 80 80 80 79 81 79 78 78 77 77 76 76 76 75 75 74 74 73 74 74 73 74 66 66 68 71
73 73 72 73 76 80 82 83 84 80 80 79 78 77 77 77 76 76 76 76 75 75 76 74 73 73 73 73 73 64 64 67 72
74 73 73 75 77 78 78 77 77 78 78 78 77 77 76 77 77 76 76 75 75 76 75 75 73 74 73 72 73 62 61 65 71
72 72 73 73 73 73 75 75 78 78 78 77 76 77 78 78 78 76 76 76 76 76 76 75 74 73 73 71 73 60 60 64 70
69 70 71 72 72 72 71 73 76 76 77 76 79 79 79 78 78 77 77 77 77 76 75 75 74 74 73 74 72 69 58 59 70
66 67 68 69 66 64 65 71 73 73 73 77 77 77 77 77 77 79 79 76 75 75 75 74 73 73 73 73 73 64 56 57 62
62 64 66 68 67 65 64 67 67 69 67 74 76 75 75 76 77 78 78 75 74 74 74 74 73 72 72 72 70 61 55 57 59
60 61 62 65 65 64 63 65 66 66 68 71 73 73 73 75 76 76 78 77 77 76 74 73 72 72 72 70 66 64 63 64 61
60 61 61 62 62 63 62 64 65 66 66 69 71 70 72 73 75 74 74 65 69 74 75 73 74 72 70 67 66 65 60 60 61
64 62 62 62 62 63 62 62 63 64 65 68 71 69 69 70 72 73 63 62 58 49 54 54 52 54 63 63 56 51 50 51 49
60 63 63 61 61 63 64 64 65 66 65 64 69 70 70 69 68 65 64 66 65 61 55 52 52 53 54 55 56 50 47 46 45

GFSFLT1_sfc_temp_027.txt.gz
Temp
88 87 88 87 87 87 85 85 84 84 82 79 81 81 80 81 81 84 85 84 86 86 87 87 86 84 84 84 83 83 81 82 82
88 88 88 88 89 89 87 86 84 83 82 81 81 82 81 80 81 82 84 84 84 86 85 88 86 85 84 84 83 82 81 83 79
89 90 90 90 90 90 89 89 87 86 84 82 82 83 83 83 82 82 83 83 82 84 86 85 86 84 84 84 83 82 80 82 80
90 90 90 91 91 91 90 90 89 87 85 83 83 83 83 82 83 83 83 83 83 83 84 84 84 83 84 83 83 81 80 81 81
90 91 90 91 92 92 91 90 89 88 87 86 85 84 82 82 83 83 83 82 83 83 83 84 84 84 83 83 83 82 80 80 81
86 86 88 90 92 91 90 91 89 89 88 89 88 85 84 83 83 82 82 82 83 83 83 83 84 84 83 83 83 81 81 81 80
87 86 86 87 87 88 89 89 87 87 88 90 89 87 86 83 83 83 83 82 82 83 83 82 83 83 83 83 83 83 82 81 81
84 85 86 86 85 84 85 86 86 86 88 87 89 85 85 83 83 83 83 82 82 83 83 82 83 83 83 83 84 85 81 81 81
85 85 88 88 86 85 84 85 85 86 86 86 86 83 83 83 83 82 81 81 81 81 82 81 82 82 82 82 85 75 70 78 81
85 88 88 87 88 86 86 87 86 85 85 85 84 83 83 83 82 81 81 81 81 80 81 81 81 81 82 81 82 68 67 70 83
87 88 89 88 90 90 86 90 92 89 88 83 82 82 83 82 80 80 81 81 80 80 81 80 81 81 81 81 82 66 65 68 81
86 88 89 89 92 89 87 87 88 87 86 84 83 82 82 82 81 81 81 80 79 81 81 81 81 82 81 80 81 63 63 67 79
88 88 89 87 88 87 87 86 90 86 86 84 82 83 83 82 83 81 81 81 80 81 82 81 84 82 81 76 81 61 61 67 84
83 83 84 84 85 84 84 84 86 83 86 84 86 87 86 84 83 82 81 79 81 81 81 82 81 81 81 80 78 78 59 59 81
79 79 80 81 79 79 79 82 83 83 82 85 86 85 84 83 82 84 84 80 79 81 78 78 79 79 78 80 81 66 57 57 65
76 78 78 80 79 77 78 80 83 80 79 83 84 83 82 82 83 83 83 81 80 77 75 75 76 74 75 75 74 75 58 55 57
74 75 76 78 77 76 74 76 78 78 80 82 83 82 81 82 81 81 82 84 83 81 76 75 74 73 72 73 73 71 63 62 63
73 72 73 75 75 75 74 75 75 77 77 79 81 81 82 82 83 80 82 83 83 81 80 80 79 81 75 73 67 64 58 61 64
71 70 71 71 72 72 72 73 73 74 74 74 77 79 82 83 85 85 84 77 70 54 54 55 54 56 70 69 57 50 51 51 51
63 68 70 70 71 72 72 73 72 74 73 72 73 73 76 81 75 84 78 68 70 66 56 48 50 51 52 53 53 50 50 51 50

GFSFLT1_sfc_temp_033.txt.gz
Temp
104 104 104 102 99 98 96 96 95 94 90 87 87 87 87 86 88 91 90 91 94 94 96 96 96 91 91 90 91 90 90 90 89
103 103 103 102 101 100 98 97 95 93 91 88 88 89 87 87 87 88 91 90 91 95 92 98 96 93 90 91 90 90 89 90 88
102 105 103 103 103 101 101 100 99 96 94 89 89 90 89 89 89 88 89 91 90 90 94 93 95 93 92 90 90 90 89 90 90
102 104 104 105 103 104 103 102 100 98 95 92 91 91 90 90 90 90 89 90 91 90 92 93 91 91 91 90 90 90 88 88 90
103 105 105 105 105 105 104 102 101 99 98 96 94 93 90 90 91 90 91 89 90 91 90 91 91 91 90 90 90 90 88 87 90
102 104 104 105 106 104 104 104 102 102 100 99 98 94 94 92 91 91 90 90 90 90 90 90 93 90 90 89 90 89 89 88 88
101 101 101 104 106 106 105 104 102 101 102 102 101 99 97 92 92 91 92 91 90 90 90 89 89 90 90 90 90 90 90 89 88
97 97 98 100 101 101 103 103 102 101 102 102 102 98 98 94 92 92 91 90 90 90 90 90 90 89 90 90 91 93 89 89 88
94 95 98 100 101 101 100 102 101 101 99 101 101 97 97 95 92 90 90 90 89 89 89 89 89 89 89 89 93 81 75 85 89
94 96 98 99 101 103 102 103 102 100 99 99 98 95 95 94 92 90 89 90 89 87 87 88 87 88 89 88 89 74 72 74 91
94 96 98 100 104 105 105 109 109 103 102 96 94 93 93 93 92 91 90 89 88 87 88 87 87 87 88 88 90 72 68 71 87
96 98 100 102 105 107 106 107 107 105 100 99 94 93 91 92 92 90 89 87 87 88 88 87 87 89 87 87 87 69 66 69 87
98 100 102 102 104 106 106 104 107 104 102 99 94 93 93 92 92 90 89 88 87 88 88 88 90 89 88 82 87 71 64 69 90
90 92 94 97 98 98 99 102 104 99 100 99 98 96 95 92 91 89 89 88 88 87 87 88 86 87 88 87 85 86 62 62 86
87 89 92 95 96 97 97 98 98 95 93 97 97 96 93 91 90 92 93 87 87 88 87 85 85 85 87 91 88 73 65 60 67
87 91 92 97 97 95 96 96 94 92 92 95 95 93 91 91 91 90 90 88 86 87 86 88 86 89 88 90 94 90 64 58 59
89 90 91 94 93 92 91 91 92 91 93 93 92 90 90 90 90 89 89 92 91 90 90 89 88 91 90 92 92 94 94 81 71
87 87 87 88 89 89 87 87 87 90 90 91 89 89 89 89 91 89 90 90 93 93 91 90 93 92 93 93 92 94 83 84 89
82 84 84 84 84 83 83 84 83 84 85 87 90 89 91 93 95 94 91 92 89 61 62 58 51 48 62 85 62 56 53 53 53
72 78 81 82 82 83 83 81 79 81 84 85 85 86 85 93 87 96 96 94 93 92 76 52 52 48 49 47 50 50 48 48 51

GFSFLT1_sfc_temp_036.txt.gz
Temp
102 101 102 99 95 94 91 92 90 88 84 82 83 84 82 82 83 85 85 86 87 86 87 88 86 85 85 84 84 84 84 84 83
100 101 102 99 98 96 93 92 90 88 85 83 83 84 84 83 82 84 85 84 86 88 86 91 88 86 85 85 85 84 84 84 82
101 102 102 101 99 98 95 95 93 91 88 84 84 85 85 85 83 84 85 85 84 85 87 86 89 85 85 85 84 85 83 84 84
102 102 101 102 100 100 98 97 95 93 90 87 85 85 85 85 85 84 85 85 85 86 86 87 86 85 84 84 84 84 83 82 83
102 102 102 103 102 101 100 96 96 94 93 91 88 87 85 85 85 85 85 84 86 86 86 86 87 86 85 85 84 84 83 82 84
98 100 101 102 103 100 100 98 96 96 94 95 93 89 87 86 86 85 85 85 85 86 85 86 87 87 85 84 84 84 84 83 83
99 98 98 101 101 99 100 98 95 95 96 97 95 92 90 86 86 86 86 86 85 85 86 85 86 86 85 86 85 85 85 84 83
98 97 99 99 100 95 95 95 94 95 97 95 96 92 90 88 87 87 87 86 86 86 85 86 85 85 86 86 87 88 84 84 84
93 94 97 99 98 99 100 96 94 95 95 96 95 91 91 89 87 86 86 86 85 85 85 85 85 85 85 85 89 79 75 82 85
93 94 96 98 99 98 97 100 97 95 94 96 94 91 91 89 87 86 85 86 85 84 84 85 84 84 85 84 85 73 72 73 86
94 95 96 96 100 99 99 103 105 99 98 92 91 89 89 89 88 87 86 85 85 84 85 84 84 84 84 84 85 72 69 71 84
95 95 96 97 100 100 97 99 98 96 96 93 91 90 89 89 89 87 86 85 84 85 85 84 85 85 84 83 84 69 67 69 82
89 91 91 91 94 96 101 100 104 95 95 93 90 90 90 89 89 87 87 86 85 85 86 85 87 85 85 80 84 71 64 67 84
87 89 89 92 91 90 94 95 95 93 93 92 93 92 91 89 88 87 87 86 86 85 85 85 84 84 85 85 83 83 63 61 83
84 86 89 93 90 90 92 97 94 89 89 92 95 91 89 88 87 89 91 85 85 85 84 82 82 82 83 86 85 71 67 59 62
83 86 89 92 92 90 91 96 93 87 89 92 93 91 88 87 87 87 86 85 84 85 83 84 83 83 84 84 87 87 64 59 59
80 83 87 89 87 88 90 92 91 89 89 91 91 90 88 87 86 85 86 88 87 86 86 84 83 84 83 86 87 87 87 79 67
77 78 83 85 84 86 86 86 84 85 86 89 88 88 88 87 88 84 86 86 88 87 87 85 87 86 86 86 86 82 62 68 84
75 77 79 82 84 84 84 84 83 83 84 85 87 87 88 88 89 89 87 86 85 64 66 57 50 50 63 80 58 50 51 54 56
71 74 78 78 79 79 79 79 80 81 83 86 83 84 85 90 85 91 87 86 87 84 61 49 49 47 47 48 48 47 48 49 49

GFSFLT1_sfc_temp_039.txt.gz
Temp
92 90 90 88 87 87 87 86 83 82 80 79 80 80 79 81 77 79 81 76 77 76 79 81 82 79 81 78 78 77 77 76 76
90 91 91 89 88 88 87 87 84 83 80 80 80 80 80 79 79 78 81 81 77 78 78 81 81 82 80 79 79 77 77 78 76
91 93 92 90 89 89 88 89 86 85 82 80 80 81 80 80 80 81 80 79 80 77 80 79 79 81 81 80 80 79 77 76 76
91 92 92 91 90 90 89 90 87 85 83 80 80 80 81 81 80 80 81 80 80 77 79 79 77 79 80 80 80 79 79 76 76
86 93 93 92 91 91 89 89 88 86 85 82 81 82 81 81 81 80 81 81 77 82 77 81 78 80 80 80 80 80 77 77 79
87 88 91 92 91 90 89 89 89 87 87 84 83 82 82 81 81 81 80 81 82 78 82 80 82 79 80 80 80 79 80 79 79
83 84 89 92 92 91 90 90 89 88 88 88 85 84 82 81 81 81 82 81 81 82 81 82 80 82 79 81 81 81 81 80 79
84 83 86 89 92 91 91 90 89 90 89 89 89 84 83 82 83 83 83 82 82 81 82 82 83 82 82 81 82 83 81 81 81
79 80 83 84 86 91 91 91 89 90 89 89 90 87 84 85 83 83 82 82 82 81 81 82 82 81 83 82 84 76 73 80 81
80 82 83 83 84 81 80 86 91 90 90 91 89 88 86 85 84 82 82 83 82 81 81 82 81 82 81 82 83 71 70 72 83
80 81 81 82 82 83 80 81 90 92 91 88 88 87 86 86 84 82 83 83 82 83 83 82 82 81 82 82 83 70 68 70 82
76 76 77 77 79 79 78 82 84 89 89 89 85 86 85 85 84 83 83 82 83 83 84 83 83 83 82 81 82 67 66 67 80
77 77 78 79 81 80 80 80 81 83 88 89 85 86 85 84 85 84 83 83 84 84 84 84 84 83 83 78 82 68 63 66 81
75 77 78 79 79 78 78 80 81 79 80 83 88 87 80 81 83 84 84 84 84 84 83 83 83 82 83 83 81 81 61 61 79
73 74 75 80 78 77 79 79 80 77 78 81 81 79 80 81 80 83 81 80 81 82 82 81 81 81 81 83 83 68 63 59 61
71 71 73 77 77 77 77 77 80 77 77 79 81 79 79 79 79 81 80 79 78 80 81 81 80 80 79 80 82 82 62 59 59
68 70 71 75 76 75 75 75 75 75 76 77 78 78 77 76 78 76 77 78 81 81 80 79 79 77 77 79 80 78 82 77 66
67 68 70 72 72 75 74 75 75 75 75 76 76 77 78 77 77 76 76 79 76 80 81 79 79 78 79 76 77 74 60 62 71
66 67 68 69 71 74 74 74 72 74 74 75 75 75 77 76 77 75 76 76 73 52 54 54 52 50 66 62 53 48 47 47 48
64 66 67 67 69 73 75 75 75 73 74 74 74 72 75 76 74 76 78 77 78 67 56 47 47 49 48 48 47 46 45 45 46

GFSFLT1_sfc_temp_042.txt.gz
Temp
78 80 84 86 85 86 85 81 81 80 78 78 78 78 78 78 77 78 78 75 73 75 77 77 78 78 78 77 76 75 74 73 73
79 82 85 86 86 86 86 82 80 80 79 79 79 79 79 77 77 79 79 76 76 73 74 78 78 79 78 78 76 76 74 74 73
82 86 86 87 86 86 87 85 83 81 80 80 80 80 80 80 79 78 80 79 74 73 74 77 78 78 79 78 78 76 74 74 74
85 87 87 88 87 87 87 87 84 82 80 80 79 80 80 80 79 80 77 77 77 77 75 76 77 78 78 78 78 77 74 74 75
87 88 89 89 88 87 87 86 84 82 81 80 80 80 80 79 79 78 78 77 77 78 78 76 77 76 78 78 78 78 77 75 77
83 88 88 89 88 86 86 86 85 83 82 81 81 80 79 79 78 78 77 78 78 79 78 79 76 76 76 77 78 78 78 78 77
82 87 88 88 87 86 86 86 85 83 83 82 81 80 79 78 78 78 78 79 79 78 79 78 75 76 77 78 78 79 79 79 77
78 85 87 86 86 86 85 85 86 84 84 83 82 80 79 78 79 80 79 78 79 80 79 78 80 78 78 79 79 80 79 79 79
74 82 87 87 87 87 85 85 85 85 84 83 83 80 79 80 79 79 79 79 77 78 78 79 78 78 78 77 81 74 72 78 79
74 75 82 87 87 88 88 87 87 85 85 85 83 81 81 80 80 78 78 79 79 77 78 78 78 79 79 80 79 69 69 71 81
74 76 77 76 78 80 79 82 88 88 86 85 83 82 81 81 80 79 79 79 78 79 79 78 78 79 79 79 81 68 67 69 79
70 71 72 74 76 76 76 81 88 88 87 85 84 83 82 81 81 80 79 78 79 80 80 80 80 80 79 79 80 66 65 67 77
71 72 72 74 76 76 77 74 78 86 86 85 84 84 84 83 82 82 80 80 80 81 81 81 81 81 81 76 80 67 63 65 79
71 71 72 74 74 72 73 75 75 76 81 85 87 86 86 83 83 82 83 82 82 82 81 81 81 80 82 81 78 78 61 60 78
69 69 71 73 74 73 73 73 77 74 75 78 78 78 78 81 82 83 83 82 81 82 81 80 79 80 80 81 81 66 60 59 62
66 68 70 72 71 72 74 74 73 71 71 74 76 75 76 76 76 77 78 79 79 80 80 80 79 79 78 79 79 77 61 58 59
64 66 67 69 69 69 69 71 72 71 72 73 73 73 75 73 73 74 75 79 79 80 78 78 79 77 77 78 76 76 76 69 65
63 65 65 66 66 67 69 70 70 71 72 72 71 72 72 74 73 72 73 69 68 77 79 78 78 77 77 76 75 74 63 65 71
59 62 63 63 64 65 67 69 70 71 71 70 70 70 72 73 73 73 74 67 61 51 49 49 52 56 66 58 53 49 49 49 49
58 60 62 62 63 65 67 68 70 70 71 71 70 68 69 71 71 74 74 74 67 62 58 48 46 48 50 52 50 48 47 47 48

GFSFLT1_sfc_temp_045.txt.gz
Temp
80 79 80 81 81 81 81 82 80 78 76 76 77 76 76 77 77 76 76 75 71 72 74 75 77 75 75 74 74 74 72 72 72
79 78 79 81 83 83 83 82 81 78 77 78 77 77 77 77 77 77 76 74 75 74 72 75 74 76 76 74 74 74 73 71 72
80 81 78 80 84 84 83 83 82 81 79 78 78 78 78 78 77 77 78 75 72 72 74 75 75 75 76 74 74 74 73 72 72
79 80 80 81 84 86 86 83 82 80 80 79 78 78 79 78 77 78 78 76 74 74 72 74 73 74 75 75 74 74 73 74 73
81 82 81 84 86 86 86 85 81 80 80 80 80 79 79 78 78 77 77 76 75 75 74 72 75 73 74 76 76 75 75 74 76
81 81 82 84 86 85 85 85 83 81 80 80 81 80 79 78 78 77 76 76 76 75 75 73 73 73 75 75 76 76 75 76 75
79 83 82 84 85 85 85 86 84 81 80 81 81 80 79 77 77 77 77 77 77 77 76 75 74 75 76 77 76 76 76 76 76
75 83 84 85 85 84 84 84 84 82 81 80 81 79 78 77 77 78 77 77 77 77 77 77 77 75 76 76 77 78 76 76 76
74 81 84 85 86 85 84 84 83 82 81 80 80 78 77 78 77 77 76 76 76 76 76 76 76 77 76 76 78 72 71 76 77
70 81 84 85 86 85 85 85 85 82 81 82 79 78 78 78 77 76 76 77 75 75 75 76 76 76 77 76 77 69 68 70 79
65 68 78 85 87 86 86 86 86 84 82 80 78 78 77 78 77 76 76 76 75 75 76 75 76 76 76 77 78 68 66 69 77
66 66 68 71 78 80 79 84 85 83 81 80 79 78 77 78 78 77 76 76 76 77 76 76 76 77 76 76 77 65 65 66 75
67 69 70 70 72 75 78 79 84 82 80 80 78 79 79 79 79 78 77 77 77 78 78 78 78 77 77 74 77 66 63 65 77
67 68 69 72 71 69 70 73 84 83 82 81 84 82 81 79 80 79 79 78 78 78 78 78 77 77 78 78 76 77 61 60 77
65 66 68 70 70 70 70 70 73 70 72 73 77 78 79 79 79 80 81 78 78 78 77 76 76 76 77 79 79 66 61 60 61
63 64 66 68 68 69 70 71 71 70 69 72 73 74 76 77 78 80 81 79 78 77 77 77 76 76 76 77 77 77 62 59 59
60 62 63 66 66 66 67 68 70 69 70 71 71 71 71 72 72 74 80 81 80 79 78 77 77 76 75 76 74 75 75 68 66
58 59 62 63 63 64 65 67 67 69 69 70 70 70 70 71 71 69 71 66 66 75 78 76 78 78 77 74 73 74 69 70 73
56 58 59 62 63 63 64 66 67 68 69 70 68 68 68 68 70 70 70 64 60 49 47 46 49 53 67 61 55 52 51 50 51
56 59 60 60 61 63 64 66 67 68 69 69 68 67 68 67 65 71 70 66 65 59 55 48 45 45 48 51 50 46 45 45 46

GFSFLT1_sfc_temp_048.txt.gz
Temp
77 76 77 78 78 78 78 78 78 76 74 74 74 74 74 74 75 75 75 73 72 73 73 74 75 75 76 76 76 76 75 75 75
75 77 77 78 80 80 79 79 78 76 75 75 74 75 75 74 75 74 74 73 73 73 73 76 75 76 76 76 76 76 75 75 75
76 78 79 80 81 81 81 82 81 78 77 75 76 76 76 76 75 75 75 73 73 72 73 75 75 75 76 76 76 76 75 75 75
76 78 79 80 81 83 82 83 82 79 78 76 77 76 76 76 76 76 76 74 74 74 74 74 74 75 75 76 76 76 75 75 76
76 79 80 80 82 82 83 82 82 81 79 78 78 77 76 76 76 76 76 75 74 74 73 74 75 75 75 76 76 76 75 75 77
72 74 77 79 81 81 82 82 81 81 80 79 80 78 77 77 76 76 75 75 75 75 75 74 75 75 75 75 76 76 76 76 76
71 72 75 78 79 80 83 82 79 79 80 80 80 79 78 76 76 76 76 76 76 75 75 74 74 75 75 76 76 77 77 76 76
67 72 75 77 78 80 81 81 78 78 79 79 80 77 77 76 76 76 76 76 76 76 75 75 76 75 76 76 77 79 76 77 76
62 66 72 78 79 80 81 81 81 78 78 78 79 77 77 77 76 76 75 75 74 75 75 75 75 75 76 75 79 72 70 75 77
62 63 70 77 80 82 83 83 82 79 78 79 77 76 76 76 75 75 75 75 74 74 74 75 75 75 75 75 76 68 68 70 79
64 65 65 77 83 83 83 85 85 81 80 77 76 76 75 76 75 75 75 75 74 74 75 74 75 75 75 75 76 67 66 68 76
65 67 67 70 79 79 79 82 81 79 78 77 76 75 75 76 76 75 75 74 74 75 75 75 75 76 75 75 76 64 64 66 76
65 68 69 68 75 75 77 76 80 78 77 76 75 76 76 77 76 76 75 75 75 76 76 76 77 76 76 72 76 65 62 65 77
66 66 68 70 69 72 75 78 79 76 76 76 78 78 78 77 77 76 76 76 76 76 76 76 76 76 77 77 75 75 61 60 76
62 63 66 68 70 69 70 73 78 75 74 75 76 76 76 76 76 78 79 76 76 76 76 75 75 75 76 78 78 65 62 59 61
60 63 64 67 67 69 70 71 74 73 72 74 75 75 75 75 76 77 78 76 75 76 76 76 75 75 76 77 78 79 61 58 58
58 61 63 65 65 66 67 68 70 70 72 73 73 73 73 73 74 75 77 78 78 77 76 76 76 76 76 77 77 77 77 72 67
57 59 62 63 63 64 66 67 69 71 72 73 72 72 73 73 74 73 74 72 72 77 79 75 77 78 78 75 75 76 69 70 74
56 57 60 62 63 64 66 67 68 69 70 71 71 71 71 70 73 71 73 66 62 49 48 48 49 53 67 67 58 58 54 52 53
57 57 59 60 61 63 64 66 67 67 68 69 69 69 70 71 67 73 70 68 67 64 56 46 44 44 50 54 56 47 45 45 46

GFSFLT1_sfc_temp_054.txt.gz
Temp
95 94 95 93 91 91 90 90 89 89 87 84 85 85 85 85 86 90 90 89 93 93 94 94 93 90 91 90 90 90 89 91 90
94 94 94 93 93 92 91 90 90 88 87 85 86 87 86 85 86 87 90 90 89 93 92 95 93 92 90 91 90 90 89 91 89
95 97 95 96 94 93 93 93 92 90 89 86 87 88 88 88 87 87 88 90 88 89 92 90 92 90 90 90 90 90 88 91 90
97 97 96 96 96 96 95 95 93 92 90 88 88 89 88 88 89 89 88 88 88 88 89 90 88 89 89 90 90 90 88 88 90
98 99 98 97 98 97 96 94 94 93 92 91 90 90 88 88 89 89 89 87 88 88 87 89 88 89 88 89 90 90 88 88 91
97 97 99 99 99 97 96 95 93 95 94 94 94 91 90 89 89 89 89 88 88 88 87 87 90 89 88 88 90 89 89 88 89
95 94 95 97 97 97 96 95 93 94 95 96 96 94 92 89 89 90 90 89 88 88 88 87 88 89 89 89 90 90 90 89 89
88 90 92 94 95 95 94 94 94 92 94 95 96 94 92 91 89 90 89 88 88 88 88 88 88 88 89 89 91 94 90 90 90
85 87 88 91 93 94 94 93 93 92 92 94 94 92 92 91 88 88 88 87 87 87 87 87 87 88 88 88 93 79 74 83 90
81 82 84 86 88 91 94 95 94 92 92 94 92 90 90 90 88 86 86 87 87 86 86 87 86 87 88 88 89 71 70 72 90
76 79 80 82 87 89 91 96 100 96 94 90 90 89 88 88 87 86 87 86 86 85 87 86 86 86 87 88 89 69 67 70 87
76 76 78 80 84 86 87 92 95 96 93 91 89 88 87 88 88 86 86 85 85 86 86 86 86 87 86 86 87 67 65 70 87
74 75 76 77 82 86 89 89 95 95 93 90 88 88 88 88 88 87 86 86 85 87 87 87 90 88 88 81 87 68 63 69 89
68 70 74 81 86 87 89 92 96 94 92 90 90 90 90 88 88 87 87 86 86 86 86 88 86 87 88 88 85 85 61 60 85
64 66 73 85 87 91 94 94 94 90 88 90 89 89 89 88 87 89 90 86 85 85 85 84 85 84 87 90 88 69 62 59 62
62 65 68 78 83 86 90 92 92 87 87 89 88 88 87 86 86 87 89 85 84 86 85 88 86 88 88 91 94 91 63 58 58
63 64 64 67 73 74 76 82 87 88 88 88 87 85 85 86 85 85 87 90 89 89 90 88 91 90 91 93 94 95 95 85 75
63 63 64 65 64 70 71 74 76 79 81 87 86 85 87 87 89 86 87 89 89 91 92 83 92 94 95 94 94 95 83 84 93
64 64 64 63 64 66 68 71 76 78 81 81 83 85 88 90 92 89 90 89 85 50 50 49 49 51 69 95 69 59 58 57 54
63 66 66 67 67 65 67 68 69 74 77 81 82 83 84 87 84 88 86 84 83 80 63 48 47 47 50 52 54 53 52 50 49

GFSFLT1_sfc_temp_057.txt.gz
Temp
99 99 99 97 95 94 93 93 93 93 89 85 86 87 85 85 87 91 91 91 94 94 96 97 93 91 92 91 91 91 89 90 90
95 99 99 98 97 96 95 94 93 91 90 87 87 87 86 85 86 87 90 90 91 95 93 98 95 93 91 92 91 91 90 91 89
92 94 100 100 99 98 97 97 95 94 93 89 88 89 89 88 87 87 89 90 90 90 94 93 94 93 92 91 91 91 90 91 91
99 99 100 101 101 100 99 99 97 95 93 91 89 90 89 89 89 89 88 91 90 91 92 92 91 91 91 90 90 91 89 89 92
100 101 102 102 103 102 100 98 97 97 95 93 92 91 89 89 90 90 90 88 90 91 89 91 91 90 90 90 91 91 89 88 91
98 99 102 103 104 102 100 99 97 98 97 96 96 92 92 91 91 90 90 89 90 90 89 89 91 90 89 89 90 90 90 89 89
98 99 100 102 102 101 100 99 97 97 98 98 98 95 94 91 90 91 91 91 89 90 89 89 89 90 90 90 90 91 91 90 89
95 97 99 101 102 100 99 98 97 96 98 98 99 95 95 92 91 91 91 90 90 90 90 89 89 89 90 91 91 94 90 91 90
91 92 95 97 99 100 99 98 97 96 96 98 97 94 94 93 90 89 89 88 88 88 89 89 88 89 89 90 94 80 75 85 91
89 90 92 93 95 97 100 101 99 98 95 97 96 93 93 92 90 88 88 89 88 87 87 88 87 88 89 88 90 73 72 74 92
84 86 87 89 92 95 97 102 104 100 99 93 93 92 93 91 90 88 88 88 87 87 88 87 87 88 88 88 90 72 67 71 89
82 84 85 86 90 91 91 95 99 100 99 95 93 93 91 91 91 89 88 87 86 88 88 88 88 89 88 87 88 69 66 70 88
78 80 83 84 86 88 90 90 94 97 98 97 91 92 92 92 91 90 88 88 87 88 88 88 91 90 90 83 88 68 64 70 91
74 75 77 79 84 87 88 91 93 91 95 96 96 95 94 92 91 89 89 88 88 88 88 89 87 89 90 89 87 86 62 61 87
67 70 70 74 81 90 93 94 93 91 89 95 95 93 92 90 89 91 92 87 87 87 87 86 87 86 89 92 90 72 63 60 64
65 64 64 68 74 87 91 93 95 90 89 94 93 91 89 89 89 90 90 87 86 87 87 88 87 89 88 92 95 92 63 59 60
63 62 61 64 66 71 77 80 82 90 92 93 90 88 88 89 88 87 90 91 90 90 90 88 91 90 91 93 95 97 97 83 73
62 61 61 62 62 63 66 69 71 75 78 89 89 88 89 88 89 87 88 90 91 92 93 88 93 95 96 95 95 97 87 87 91
61 60 61 60 61 61 62 64 65 67 71 77 82 82 86 90 91 90 91 91 85 52 57 53 54 54 69 85 62 59 55 55 59
59 61 60 61 61 62 62 65 64 65 68 70 80 81 84 92 88 92 92 91 89 85 65 50 50 50 54 54 54 55 54 52 50

GFSFLT1_sfc_temp_060.txt.gz
Temp
87 95 96 94 92 91 89 90 88 87 82 80 82 83 80 81 83 85 85 86 87 86 87 86 85 86 85 85 85 84 84 84 84
76 74 80 94 94 92 90 90 88 87 83 82 82 83 82 80 82 83 84 84 86 87 86 89 86 86 86 86 85 85 82 82 81
76 76 73 79 96 94 93 93 92 90 87 83 83 83 84 83 82 83 83 83 84 84 87 87 84 85 85 86 86 86 84 83 83
76 79 74 70 76 97 95 94 93 92 89 85 84 85 84 83 83 83 83 84 83 84 85 87 87 87 86 85 85 86 84 83 84
87 83 77 72 70 80 96 94 94 93 91 90 87 85 84 84 84 83 84 82 85 85 85 86 86 85 86 85 85 85 84 83 85
89 80 78 76 76 81 96 96 94 94 93 93 92 87 86 85 85 84 83 83 84 85 84 85 87 86 84 84 85 84 84 84 83
96 87 79 82 87 89 97 94 92 92 94 95 94 90 88 85 85 85 85 84 83 85 85 84 85 85 85 85 85 85 85 85 84
94 94 93 96 95 91 93 92 91 92 94 93 94 90 88 86 85 85 85 84 83 84 84 85 85 84 85 85 86 89 84 85 84
78 92 95 95 94 93 88 92 92 92 92 93 93 89 88 87 85 84 84 83 84 83 83 84 84 84 84 84 89 79 75 82 85
71 84 91 87 90 92 77 73 79 92 92 93 91 89 88 86 85 84 83 84 83 83 82 84 83 83 84 83 85 73 72 74 86
69 76 84 85 89 89 87 72 73 96 95 90 90 88 88 87 86 84 84 83 83 83 84 83 83 83 83 84 85 72 68 71 83
67 66 74 84 87 88 86 88 89 91 95 91 90 89 87 87 87 85 84 83 83 84 84 83 83 84 83 83 84 69 68 69 80
70 66 75 78 81 82 85 86 90 89 91 92 88 89 89 89 87 86 84 83 83 84 84 84 86 85 85 80 83 69 65 69 85
69 69 69 73 74 77 80 86 89 85 87 88 92 91 91 89 88 86 86 84 84 84 84 84 83 84 85 85 83 83 63 61 83
64 66 65 67 68 73 80 83 86 84 83 87 89 90 89 88 87 90 90 84 84 84 83 82 82 82 84 87 86 71 62 60 65
63 63 62 64 64 67 69 73 77 81 85 86 87 89 86 87 87 87 87 85 83 84 83 84 83 84 83 86 88 87 65 59 60
59 62 61 62 63 62 63 66 71 75 76 84 86 86 85 86 86 85 86 88 86 85 85 84 85 84 85 85 87 89 87 75 68
57 60 60 62 61 59 60 63 67 70 72 75 85 87 87 86 87 84 85 86 86 86 87 85 85 87 87 87 86 88 78 78 81
58 58 59 60 60 59 60 62 63 66 69 68 74 86 87 87 88 87 86 85 78 54 60 55 58 59 80 77 60 53 52 52 60
57 58 58 58 60 59 59 59 60 62 66 67 69 73 83 87 83 87 84 84 82 78 64 49 48 50 55 60 57 54 51 49 51

GFSFLT1_sfc_temp_063.txt.gz
Temp
77 74 77 86 84 86 85 82 81 80 79 78 78 78 77 76 75 78 75 77 77 82 82 83 79 79 78 78 78 78 77 76 76
74 75 72 78 86 86 86 84 82 81 79 79 78 78 78 77 75 77 76 77 78 79 80 82 80 80 80 78 78 77 77 76 75
72 71 72 71 73 82 84 87 84 83 80 79 79 80 79 79 78 76 75 77 77 78 79 80 79 81 81 79 78 78 76 75 76
74 71 70 70 71 73 75 80 87 84 81 79 79 80 80 79 79 78 77 75 77 77 78 78 80 79 78 79 79 78 77 76 77
77 73 74 71 72 71 71 71 87 86 84 80 80 81 81 80 79 79 79 76 75 79 77 77 80 81 81 78 78 78 77 76 79
78 78 75 76 75 76 80 76 78 88 87 83 82 82 80 80 80 79 80 80 76 77 77 77 79 79 80 80 80 78 77 77 77
75 76 75 75 79 77 79 83 80 88 88 88 84 82 82 80 80 80 80 81 81 77 81 78 79 78 79 78 79 78 78 78 77
73 72 75 75 78 77 71 78 77 86 89 89 88 83 82 81 81 82 81 80 79 80 79 82 78 79 77 80 79 82 77 78 78
70 66 66 70 75 74 78 77 76 82 89 89 89 86 83 83 82 82 81 80 80 78 79 80 82 80 79 77 83 76 73 78 77
65 65 65 67 73 69 71 71 75 73 78 87 88 87 84 83 82 81 80 81 80 78 79 80 79 81 81 80 81 71 71 73 82
62 63 64 65 67 69 71 69 71 70 70 72 75 84 84 83 82 81 81 81 80 80 80 80 81 80 80 80 81 70 68 71 80
62 62 64 64 66 66 68 74 70 72 73 72 72 80 83 83 83 81 81 80 81 81 81 80 81 82 80 80 81 67 67 68 77
63 64 66 63 64 68 68 72 73 72 71 72 76 85 85 84 84 83 81 81 82 83 83 83 82 82 82 77 81 68 65 67 80
64 63 63 64 64 64 67 69 69 72 72 79 75 82 84 84 84 84 83 83 83 83 82 82 82 81 82 82 79 80 62 62 81
60 61 62 64 61 62 66 66 65 66 69 71 77 81 78 81 84 85 84 82 82 82 82 81 80 80 80 82 83 69 64 60 62
59 60 61 62 60 62 64 64 64 64 66 68 70 75 79 78 83 84 86 81 81 80 81 80 80 80 79 81 83 83 64 60 60
58 59 59 61 58 60 59 62 64 64 65 66 66 69 78 81 83 83 85 84 83 82 81 80 80 80 80 81 82 83 83 71 65
57 55 59 59 58 59 60 60 60 63 63 64 64 67 76 80 84 80 84 85 83 83 84 82 82 82 82 81 80 83 77 75 75
55 57 57 57 58 58 58 60 59 60 60 60 62 63 71 80 84 82 84 82 69 52 57 58 60 63 77 82 64 67 61 57 59
56 57 55 56 57 57 57 58 57 58 58 59 60 61 64 68 77 82 81 80 80 72 61 49 47 49 60 58 60 51 53 50 54

GFSFLT1_sfc_temp_066.txt.gz
Temp
76 76 79 82 83 81 79 79 79 78 76 76 77 76 75 72 74 74 74 74 78 80 80 79 76 77 76 76 75 75 74 73 74
74 76 75 83 84 83 79 80 79 79 76 77 77 77 77 76 73 73 73 74 75 78 80 79 76 77 76 76 76 75 74 73 73
72 73 72 81 81 82 81 81 81 80 79 78 77 78 78 78 77 75 73 74 74 75 76 77 76 77 77 76 75 75 73 73 74
73 72 72 75 75 75 79 82 81 80 79 78 77 78 78 78 79 77 72 74 76 76 75 77 77 78 77 77 76 75 73 73 73
76 74 75 75 76 75 75 79 81 80 80 79 79 79 78 78 78 78 76 73 75 76 75 75 77 78 78 78 77 75 74 73 76
74 71 71 72 73 73 78 77 82 82 81 79 80 80 79 78 78 78 78 78 73 74 76 74 75 77 78 78 78 77 76 76 75
68 70 70 67 71 74 77 74 73 77 82 81 81 80 79 78 78 78 78 80 79 72 73 76 75 77 78 79 79 78 78 77 75
65 64 66 66 68 72 72 73 73 75 80 83 81 80 79 78 79 79 79 79 79 78 74 77 77 76 77 78 79 80 78 78 76
61 62 64 66 67 68 69 75 73 72 72 77 82 80 79 80 79 79 78 77 78 77 77 77 76 75 77 77 81 74 71 76 77
59 60 63 63 63 64 65 68 69 70 71 71 82 80 80 80 79 78 78 78 77 77 77 78 78 77 76 76 78 70 69 71 78
58 59 60 60 62 63 66 67 70 70 72 72 72 74 80 80 80 78 78 78 77 77 78 77 78 78 79 78 78 68 67 69 78
59 59 61 61 63 63 64 67 68 70 71 69 69 72 74 79 81 79 79 78 78 78 78 77 78 79 78 78 80 66 66 67 76
60 61 62 60 63 64 65 66 65 68 69 68 67 71 72 76 81 81 79 80 79 80 80 79 79 79 80 75 79 67 64 66 78
60 61 62 62 60 62 64 64 62 64 66 67 68 70 73 76 81 82 82 81 81 81 80 80 79 79 80 80 78 79 62 61 78
55 59 61 60 57 58 62 63 60 61 62 63 66 66 67 70 76 82 84 82 81 81 80 79 79 78 78 80 81 68 64 60 62
53 55 58 60 57 57 59 63 63 61 61 62 63 64 65 67 73 78 78 82 81 80 80 80 78 78 78 78 80 81 63 60 60
52 53 53 58 57 58 58 60 61 62 63 62 60 61 63 65 69 78 80 81 82 81 80 79 80 78 78 79 80 80 82 72 66
51 52 53 55 55 55 57 58 59 60 61 60 59 60 61 64 69 74 81 83 82 82 83 81 80 81 80 79 78 80 74 74 76
51 52 53 53 57 55 54 54 57 57 55 56 56 58 60 62 63 67 77 82 71 53 56 59 58 61 74 81 69 62 58 56 56
52 53 55 51 54 53 51 52 53 55 54 54 55 56 58 59 60 65 73 79 78 73 60 49 51 52 56 57 64 53 53 54 52

GFSFLT1_sfc_temp_069.txt.gz
Temp
74 75 76 79 80 78 78 78 77 76 75 75 75 75 73 72 73 74 73 72 72 74 76 76 75 74 74 73 73 73 73 72 72
71 74 76 80 80 80 78 78 77 76 75 76 76 76 75 72 73 73 73 72 72 75 76 77 75 75 74 74 74 73 73 72 72
71 73 73 76 80 79 80 80 79 79 77 76 77 77 77 75 74 73 72 72 72 73 74 75 74 74 73 74 74 74 72 72 72
69 73 73 72 77 81 80 81 80 79 78 77 77 77 78 78 75 72 71 72 73 73 74 74 74 74 74 74 74 73 72 72 72
69 74 73 72 73 74 75 76 78 77 79 78 77 78 78 77 77 74 72 72 72 73 73 73 74 74 74 74 75 73 73 72 74
66 67 67 66 68 67 69 70 72 72 74 75 78 78 77 77 77 76 75 73 71 72 72 73 73 73 74 75 76 75 74 74 72
63 63 64 65 65 66 67 70 71 70 74 76 75 78 77 76 76 76 77 77 74 72 72 73 73 73 74 75 76 77 76 74 73
62 61 62 62 62 64 66 68 71 73 73 75 76 76 77 76 77 78 77 77 77 74 71 74 74 74 73 75 76 78 76 76 74
58 59 60 61 62 64 65 66 67 68 71 72 77 77 76 77 77 76 76 76 76 76 76 72 71 73 75 74 78 73 71 75 76
56 57 58 59 60 62 63 64 67 67 69 70 72 77 77 77 75 75 76 76 75 75 76 76 75 74 73 75 77 69 69 71 79
55 57 57 58 60 60 62 65 67 67 69 69 71 72 77 78 77 74 75 76 75 75 76 76 75 76 76 75 77 68 67 69 76
54 56 58 58 60 61 63 64 64 66 70 69 68 70 70 74 78 76 76 75 76 76 76 75 75 76 76 76 77 65 65 67 75
53 55 59 59 60 62 62 62 62 64 65 65 65 67 69 71 72 76 76 76 77 77 75 77 77 76 77 74 77 66 63 65 77
53 54 57 61 60 60 62 62 61 61 62 61 63 66 67 67 69 70 72 78 79 78 78 78 76 76 77 77 76 76 61 61 76
50 51 54 60 58 59 60 61 60 59 59 61 63 64 65 66 67 70 75 77 80 79 78 76 76 76 76 77 78 66 62 60 62
49 51 52 56 57 58 60 61 60 57 59 60 60 61 62 64 65 67 71 73 77 78 78 78 75 75 76 76 78 79 62 59 59
48 51 51 53 55 55 57 58 58 58 60 59 57 58 60 62 64 64 69 72 73 73 73 73 73 73 73 72 77 78 79 69 64
47 49 51 52 53 56 57 55 56 57 58 57 55 56 59 60 61 62 63 67 73 74 77 76 75 78 75 74 76 78 72 73 74
47 48 51 52 55 55 54 51 51 53 52 52 53 54 57 57 58 60 61 65 68 57 58 56 57 57 70 78 68 60 56 54 54
51 50 51 54 55 54 53 49 49 50 50 51 51 52 54 55 55 59 60 61 64 69 65 52 51 49 53 54 65 53 52 52 52

GFSFLT1_sfc_temp_072.txt.gz
Temp
74 74 76 77 77 76 76 76 76 75 74 73 72 73 72 72 72 74 73 73 73 74 74 76 76 76 76 76 75 76 75 75 76
68 71 74 76 76 77 76 76 75 75 74 74 74 74 73 71 72 72 73 73 74 74 75 78 77 76 76 76 75 75 75 75 75
65 69 70 74 76 77 77 78 77 77 76 75 75 75 75 74 73 73 73 74 73 74 75 76 76 76 76 76 75 76 75 75 75
63 67 70 72 75 78 78 79 78 77 77 76 75 76 75 75 73 73 72 74 74 74 75 75 75 76 77 76 75 75 73 74 75
63 65 69 70 71 71 72 72 76 74 77 77 77 76 75 74 73 73 73 73 74 74 75 75 75 76 76 76 76 76 76 75 77
62 63 63 65 67 67 69 71 72 71 73 75 77 74 76 75 74 73 73 73 73 73 74 74 75 75 75 76 76 76 76 76 76
61 61 61 62 62 64 66 68 70 71 73 72 74 76 76 75 74 75 75 74 73 73 74 74 74 75 76 76 77 77 77 76 76
59 59 60 61 61 63 64 65 67 69 72 73 73 75 76 75 75 75 75 74 74 74 74 75 75 75 76 76 77 79 76 77 76
54 56 59 60 61 62 63 64 66 68 69 70 75 75 75 76 75 74 74 74 73 73 73 73 73 74 75 76 79 71 70 75 77
52 53 56 58 59 60 61 63 65 65 67 70 70 74 73 73 75 74 74 74 73 73 73 73 73 73 74 74 76 68 68 70 78
50 51 53 55 58 59 61 63 64 64 68 70 70 71 72 74 74 74 74 74 73 73 74 73 72 73 73 74 76 67 66 69 77
50 51 52 54 58 60 61 62 63 63 66 66 67 68 68 72 75 74 74 73 73 74 74 74 74 75 73 73 74 65 64 67 76
51 52 53 54 56 60 61 63 61 61 63 64 63 65 66 67 69 72 74 73 73 73 74 75 76 76 75 71 74 65 62 65 77
51 51 52 54 55 57 60 61 61 59 60 61 62 64 65 67 67 68 71 73 74 72 73 73 75 75 76 75 73 74 61 60 75
49 49 51 54 53 54 58 60 60 59 58 61 61 62 63 65 66 67 68 69 70 75 75 73 73 74 75 77 76 65 62 59 61
49 49 51 53 52 53 57 59 59 58 59 59 59 59 60 62 65 66 67 67 69 72 74 76 74 75 75 76 78 77 61 58 58
47 49 49 51 51 51 53 58 60 58 59 59 57 56 58 60 62 62 64 67 66 69 73 72 74 75 75 76 77 78 78 71 66
47 47 49 50 49 50 53 58 57 56 57 56 54 55 56 58 60 60 61 63 65 67 71 73 74 76 76 74 75 77 69 69 72
48 47 49 49 50 51 53 57 56 54 54 53 52 53 55 56 56 57 59 61 63 57 55 53 52 54 68 76 65 59 54 53 52
48 49 50 50 51 52 54 54 54 53 51 50 50 50 52 54 53 55 57 59 60 60 63 54 51 49 51 51 59 53 50 50 52

GFSFLT1_sfc_temp_075.txt.gz
Temp
82 83 85 85 84 84 83 83 83 82 81 79 80 80 80 81 81 85 86 84 87 86 87 87 86 85 85 84 84 84 83 85 86
71 80 84 85 85 85 84 83 83 82 81 80 81 82 81 80 81 81 84 84 84 87 85 88 86 86 85 85 84 84 84 86 81
66 72 78 84 86 85 85 86 85 84 83 81 82 83 83 83 82 82 83 83 83 84 86 85 86 85 86 85 85 84 83 84 84
63 72 77 81 85 87 86 86 86 85 84 82 82 82 83 83 83 83 82 83 83 84 85 85 84 84 85 85 85 84 83 83 85
64 66 70 76 79 83 85 83 85 85 85 84 83 82 82 79 82 83 83 81 83 84 83 85 85 85 84 85 85 85 83 83 85
61 64 65 66 69 70 75 81 84 86 82 86 87 82 81 77 78 80 83 82 83 83 83 84 86 85 84 84 85 84 84 84 84
61 61 62 62 63 65 66 70 74 79 82 86 87 87 84 79 77 77 82 83 83 83 82 83 84 84 84 85 86 85 86 85 84
62 60 61 62 61 62 64 66 68 73 77 78 81 83 84 83 82 80 78 80 83 83 82 83 83 83 84 85 86 89 85 85 85
61 61 61 63 63 63 63 64 65 67 69 73 74 76 81 83 83 82 81 81 81 81 81 81 82 82 83 84 87 77 72 80 86
59 60 61 61 62 63 63 63 64 64 65 70 74 75 77 80 81 80 80 81 81 80 80 81 80 81 82 82 84 70 68 70 87
58 59 60 61 63 65 66 67 65 64 65 67 72 76 76 78 79 79 81 80 80 79 81 80 80 80 81 81 83 69 66 68 83
59 60 61 62 64 65 66 68 69 66 64 65 65 68 71 73 75 79 80 79 79 80 80 80 80 81 80 80 81 66 65 68 83
59 60 61 61 63 65 66 67 69 68 68 68 67 64 65 69 73 73 77 79 79 80 80 81 83 82 82 76 80 67 62 67 83
60 60 60 60 62 62 63 65 67 65 67 67 67 68 66 65 69 69 70 75 78 79 79 79 80 80 81 81 80 79 61 60 80
57 58 58 60 60 61 63 64 65 65 64 67 66 66 66 66 66 68 70 69 69 72 74 74 76 77 80 84 82 67 63 59 60
57 57 58 59 59 59 61 62 63 62 65 67 65 62 61 65 65 66 67 66 69 74 76 78 78 79 78 81 86 85 61 58 58
56 57 57 58 58 57 58 61 61 63 65 66 64 62 60 62 64 64 67 67 68 67 70 78 79 77 80 82 83 85 86 80 71
54 54 56 57 56 57 57 59 60 63 65 65 63 63 63 63 64 65 66 68 68 71 72 67 73 73 76 79 81 84 75 77 84
48 50 52 53 54 54 55 58 60 62 65 62 61 61 63 64 63 61 65 62 67 59 54 52 51 49 55 72 65 58 54 53 52
50 50 49 49 49 52 53 51 53 58 59 55 56 59 60 62 60 63 63 64 61 60 64 52 51 48 49 47 54 53 49 51 50

GFSFLT1_sfc_temp_078.txt.gz
Temp
86 90 93 92 92 92 92 92 91 91 88 84 85 86 85 86 86 90 90 90 93 93 94 94 93 90 90 90 90 90 89 90 91
75 87 91 92 93 93 93 92 91 90 88 86 86 88 87 86 86 86 90 90 90 93 92 95 92 92 90 90 90 89 88 91 88
69 83 84 92 93 93 94 94 94 92 91 88 88 88 89 89 88 87 88 89 87 89 92 91 92 90 91 90 90 90 88 90 89
65 67 75 79 89 92 94 95 95 94 92 90 89 89 88 88 90 89 88 88 88 88 90 90 90 90 89 89 90 90 88 88 90
64 66 65 66 70 83 93 93 94 94 94 92 92 89 86 87 87 89 90 88 89 89 88 90 90 90 87 90 90 90 88 88 91
63 63 64 65 66 66 69 73 87 93 93 94 93 89 87 87 87 88 88 89 89 89 88 88 91 90 88 88 90 89 89 89 89
65 65 64 65 64 63 64 67 70 74 86 93 94 94 91 85 87 87 86 89 89 89 88 87 88 89 90 90 90 90 90 90 89
69 68 67 67 66 65 64 65 67 70 72 77 86 88 91 90 89 87 87 83 87 89 88 88 88 88 89 90 91 94 90 90 90
68 68 69 70 71 71 69 68 67 65 66 69 77 81 84 87 88 88 86 85 79 86 87 87 87 87 88 88 93 79 73 83 91
66 67 68 69 71 72 73 72 71 68 66 69 70 75 82 82 83 84 84 86 85 84 84 86 85 86 87 87 88 73 70 72 90
66 67 68 69 72 72 73 76 72 71 70 69 68 67 68 69 77 80 81 81 82 84 85 85 85 85 86 86 89 71 69 70 87
67 68 70 70 72 73 73 74 75 74 73 75 69 67 66 67 68 71 76 80 79 82 81 83 85 86 85 85 86 67 66 70 86
68 69 70 69 70 73 73 72 75 73 75 74 74 73 68 68 69 66 68 75 75 78 82 83 86 86 87 80 85 69 63 68 88
68 68 68 68 69 69 71 72 72 70 72 73 74 75 74 72 69 67 68 67 72 75 77 80 82 84 85 86 84 84 61 60 84
65 66 67 68 67 67 69 70 70 68 67 71 73 73 72 72 72 71 70 70 69 69 74 74 77 77 79 86 86 70 65 59 61
64 65 65 67 67 66 67 68 68 66 67 68 70 71 70 71 72 73 74 72 71 69 70 75 76 74 74 77 87 91 63 59 59
62 63 62 64 64 64 63 66 66 66 67 68 68 68 69 71 71 71 73 76 78 79 76 74 78 83 74 75 78 82 94 82 73
60 59 59 58 59 57 55 57 60 65 66 68 68 69 70 70 73 74 72 73 76 75 75 73 70 70 74 74 76 79 62 63 79
53 54 57 58 56 57 58 59 60 62 61 58 61 66 70 72 72 72 74 73 74 63 55 51 50 49 54 71 62 55 54 51 53
55 55 56 54 53 54 55 55 56 60 61 59 55 57 63 66 66 71 70 71 72 71 72 57 52 50 48 47 50 48 51 47 48

GFSFLT1_sfc_temp_081.txt.gz
Temp
88 89 86 83 92 92 89 95 94 93 89 86 87 87 87 88 88 90 91 91 87 86 83 84 90 91 91 90 91 90 90 90 91
84 92 88 88 91 88 91 93 94 93 91 88 88 89 88 87 88 88 91 92 92 94 90 85 93 93 91 91 91 91 89 90 90
72 88 75 70 82 92 90 91 96 95 94 90 90 90 90 90 89 89 89 91 90 92 93 93 79 92 90 91 91 91 89 89 90
64 68 70 70 77 79 81 95 97 97 95 93 91 91 91 90 91 91 90 90 90 90 91 91 92 91 91 90 90 91 88 89 85
66 68 68 66 70 72 73 72 81 94 97 96 95 93 91 91 90 91 91 89 90 90 89 90 90 91 89 90 90 91 89 89 92
64 65 70 67 64 64 67 73 76 74 74 88 98 94 94 91 90 89 90 91 90 90 89 89 91 91 88 89 90 90 90 90 89
67 66 66 68 64 63 64 65 69 74 78 81 76 86 94 91 90 90 90 91 91 90 90 89 89 90 91 90 90 91 91 91 87
72 71 71 68 66 64 64 65 64 66 71 75 78 82 83 90 90 90 90 89 89 91 90 90 89 89 90 91 92 95 90 91 91
71 72 73 74 74 74 72 69 68 67 67 70 73 73 77 76 82 79 89 88 88 87 87 90 90 88 89 89 94 81 75 83 92
71 72 72 73 75 75 77 76 75 71 70 72 70 70 70 71 74 76 78 83 85 86 84 87 87 88 89 88 89 75 71 74 92
71 72 73 74 76 76 77 80 78 74 74 73 71 69 69 69 70 73 76 76 79 81 84 82 84 87 87 88 90 72 69 70 88
72 73 74 75 77 77 76 77 78 77 78 76 78 74 70 69 69 69 72 74 72 76 80 79 80 82 84 84 87 69 67 70 87
72 73 74 73 75 77 77 75 78 76 77 77 76 76 76 76 72 70 70 70 72 73 76 79 81 83 81 79 85 71 65 68 88
72 72 72 73 74 73 73 75 75 72 73 73 74 76 77 76 76 74 72 70 72 71 73 76 78 80 81 83 82 83 63 61 84
70 70 71 72 72 72 73 73 72 70 69 72 72 73 74 74 75 76 78 73 73 74 73 72 74 75 77 79 81 71 68 60 61
68 68 68 70 70 70 71 71 70 68 68 70 70 70 70 72 74 75 75 74 75 78 79 72 71 77 75 74 76 80 66 60 59
67 67 65 65 65 64 64 64 66 66 67 68 67 68 69 72 73 73 75 79 79 80 81 80 80 76 71 70 75 77 79 71 68
64 63 63 62 61 61 60 61 61 63 66 66 65 66 68 71 75 75 76 77 78 78 78 74 75 75 76 76 76 72 58 58 66
62 62 62 62 60 60 60 59 60 62 64 62 60 63 66 69 70 73 75 76 76 65 58 57 53 50 59 74 61 55 51 48 50
59 61 61 59 59 59 58 59 57 58 60 59 57 57 60 65 65 69 71 72 73 72 74 52 51 50 49 48 51 47 46 44 44

GFSFLT1_sfc_temp_084.txt.gz
Temp
74 77 72 72 89 86 87 88 88 87 83 82 83 84 83 84 84 85 86 86 87 80 75 77 83 84 85 86 84 85 84 84 84
77 76 79 78 84 87 90 88 88 87 83 83 84 85 84 84 84 84 84 85 86 88 82 77 83 77 85 86 87 84 83 81 83
67 67 70 70 71 70 91 90 91 90 86 84 85 86 86 86 85 85 85 86 87 88 84 79 74 76 77 85 85 85 83 82 82
65 65 66 68 68 67 73 84 85 92 89 86 87 87 86 86 86 86 86 86 87 87 89 81 76 72 75 84 85 84 82 82 83
67 67 65 66 67 66 66 69 75 76 79 91 90 88 86 86 86 86 86 85 86 86 85 87 86 82 84 84 84 83 82 83 85
67 68 68 66 66 65 65 66 66 71 75 77 80 89 90 88 87 87 87 85 86 86 85 85 87 86 84 84 85 85 84 82 83
67 68 69 69 67 65 65 65 65 68 72 73 76 76 73 86 87 87 88 87 85 86 86 85 85 85 86 85 85 86 85 84 83
70 70 70 70 69 68 66 65 64 66 68 70 72 74 74 72 74 84 87 85 84 85 86 86 85 85 85 86 87 90 85 85 84
70 71 72 73 73 73 70 68 64 65 66 66 68 70 70 72 75 75 77 81 84 84 84 85 85 84 84 84 89 80 74 81 85
70 71 72 72 73 74 74 73 72 68 69 68 66 68 70 70 72 72 72 75 78 79 80 81 83 84 84 84 84 75 71 71 85
71 72 72 73 75 75 75 77 76 73 73 70 69 68 70 70 69 70 72 73 72 73 75 78 78 81 82 82 85 72 71 71 79
72 72 73 74 76 75 74 75 76 75 74 75 74 73 72 70 69 68 68 70 69 70 71 72 76 79 80 81 82 70 66 68 77
73 74 73 73 75 76 74 74 75 74 74 73 71 72 73 74 74 73 72 70 70 71 71 71 73 76 78 76 80 71 66 67 82
73 73 73 73 74 72 72 73 73 70 70 69 70 72 72 73 74 73 74 74 73 72 72 72 74 75 77 78 77 79 64 62 76
71 71 72 73 71 71 72 71 70 67 66 68 69 70 70 70 71 74 75 72 72 72 73 73 73 73 75 78 78 68 65 59 58
69 69 68 70 69 68 68 66 66 63 64 67 66 66 66 69 70 71 72 71 70 72 73 76 75 76 76 76 76 74 59 59 59
68 66 64 65 65 64 63 63 63 63 64 65 64 63 64 66 66 69 71 73 75 75 75 75 75 74 73 74 72 71 68 64 64
64 64 63 63 61 61 61 61 61 63 63 62 60 60 62 65 68 67 68 72 73 74 73 72 72 72 72 70 70 69 56 55 63
63 62 62 61 61 61 60 60 60 60 60 60 59 58 60 61 63 65 67 68 69 65 57 55 52 51 59 71 61 54 52 47 45
57 61 61 60 59 60 59 59 58 58 59 59 57 57 58 60 60 62 64 65 66 65 68 60 56 52 50 49 54 50 48 46 45

GFSFLT1_sfc_temp_087.txt.gz
Temp
70 68 70 69 71 77 79 82 80 80 76 76 75 75 75 75 75 75 76 77 74 77 72 73 75 77 77 77 77 78 77 76 76
68 68 68 69 72 74 77 80 81 80 78 77 77 77 75 76 75 76 77 78 75 78 74 76 77 75 77 79 78 77 77 75 75
65 68 71 71 72 71 70 73 83 82 80 78 78 78 77 77 75 77 77 77 77 77 75 77 76 75 75 76 78 77 77 75 76
64 64 67 69 69 68 68 69 75 77 78 79 79 80 78 77 78 78 76 77 78 77 75 74 73 73 73 75 77 77 76 75 77
64 64 64 66 67 67 68 67 68 69 70 71 73 82 81 80 78 79 78 77 78 78 76 74 73 72 71 74 75 77 76 77 79
64 63 63 63 64 64 65 66 67 68 69 69 71 70 75 74 77 80 80 79 78 79 78 78 77 75 74 75 78 77 76 77 77
65 64 64 63 62 63 63 64 65 67 68 69 70 70 69 70 71 72 77 77 79 79 79 78 78 77 77 78 78 79 78 77 76
65 64 63 62 61 62 63 64 65 66 66 68 68 68 68 68 71 72 74 75 76 76 77 79 79 78 78 78 79 82 78 78 77
66 67 66 66 65 63 62 62 62 65 64 65 68 67 67 68 70 70 70 72 73 75 76 76 77 77 78 77 83 76 74 77 78
64 66 65 65 66 65 64 64 64 63 64 65 65 65 65 67 68 68 69 70 69 68 69 73 74 75 76 76 76 71 71 70 76
63 64 64 64 64 63 65 66 66 65 66 66 66 65 66 67 67 67 68 68 68 69 69 69 71 73 74 75 76 68 66 68 71
63 62 63 63 65 64 63 65 66 66 66 66 67 67 67 68 68 67 66 66 66 67 68 70 70 71 72 72 74 68 64 65 70
64 64 63 63 64 64 63 63 64 63 63 63 63 65 66 67 68 68 65 66 66 67 67 69 71 71 72 70 73 68 62 64 71
63 62 63 64 62 61 60 61 61 59 59 58 61 63 64 66 66 66 66 66 65 66 66 66 67 70 70 71 71 68 60 59 67
62 61 62 62 59 58 59 59 58 55 55 58 59 59 59 60 64 66 68 64 64 64 63 64 65 67 68 71 67 59 57 57 57
59 58 58 59 57 56 56 56 55 53 54 56 56 55 56 57 59 61 64 62 63 62 63 62 64 65 65 67 67 67 57 57 60
56 56 55 56 55 53 52 53 54 53 54 54 53 52 53 55 56 57 59 61 65 64 64 62 62 62 61 62 63 62 65 61 62
54 54 54 54 53 52 51 52 52 52 52 52 51 51 52 52 55 55 56 60 58 61 62 57 59 63 61 60 61 63 58 54 61
53 53 53 52 52 51 51 52 50 50 51 51 48 48 50 51 52 52 54 56 57 56 54 53 52 50 50 62 57 52 49 48 47
53 53 52 51 51 51 50 51 50 51 51 50 49 47 49 50 51 53 52 53 53 52 55 53 52 51 50 48 49 48 46 46 47

GFSFLT1_sfc_temp_090.txt.gz
Temp
72 72 71 71 70 70 75 79 77 77 75 73 71 73 73 73 73 73 73 74 72 73 71 71 74 75 75 75 75 75 75 73 74
69 71 71 71 69 71 71 75 77 77 75 75 72 73 73 73 73 74 75 75 72 75 72 72 75 75 75 76 76 75 74 73 74
63 68 68 69 69 71 70 71 71 78 78 76 75 73 73 74 73 74 74 73 74 74 73 74 74 74 75 75 75 75 74 73 73
63 64 66 69 69 68 69 70 70 71 73 75 73 73 73 74 73 74 74 74 74 75 74 73 73 73 75 74 75 75 74 73 74
63 63 65 68 68 68 68 68 69 69 70 70 70 71 72 75 74 74 74 75 75 75 74 73 73 73 71 72 73 74 74 74 76
62 63 63 64 65 66 67 67 68 69 69 69 70 70 70 71 72 72 75 75 75 75 74 73 73 73 71 70 73 74 74 74 75
62 62 62 62 63 63 65 66 66 67 69 69 69 69 68 67 69 70 71 73 74 73 74 74 73 73 73 74 75 76 76 75 72
62 61 61 61 62 62 64 65 65 66 68 68 69 68 68 68 70 70 71 72 73 75 74 74 75 75 75 75 76 79 75 75 75
62 61 62 62 62 62 62 63 64 64 65 66 67 67 67 67 69 69 70 69 69 70 71 73 73 74 74 74 79 71 70 73 75
63 63 62 62 62 61 62 61 62 62 64 66 64 65 65 66 67 68 68 68 69 68 68 69 70 71 73 73 74 69 68 68 71
64 63 61 60 60 62 62 63 66 64 63 63 65 65 65 65 66 65 66 66 66 67 68 68 68 70 70 70 73 67 65 67 70
59 59 59 60 61 61 63 62 62 62 61 61 62 63 63 64 66 65 66 65 66 66 67 67 68 69 69 70 71 64 62 64 70
60 60 60 60 59 60 59 57 60 59 58 58 58 59 60 63 64 64 64 64 65 66 66 66 68 68 70 68 72 58 58 62 68
62 60 59 58 57 55 54 55 57 54 54 53 55 57 58 59 60 62 64 63 64 64 64 63 64 66 67 68 65 62 57 58 65
58 57 57 57 54 53 53 54 54 51 51 52 54 54 54 55 56 59 62 62 63 63 63 62 65 67 66 67 66 59 57 56 57
55 56 54 55 53 51 51 51 51 48 49 51 52 51 51 52 53 56 57 59 61 62 62 62 62 62 62 63 64 64 55 57 59
53 53 52 52 50 48 48 49 49 48 49 50 49 48 49 50 50 51 52 57 59 59 57 56 57 59 58 60 62 58 58 60 57
51 50 51 51 48 48 47 47 47 48 49 48 47 47 48 47 49 47 49 51 52 55 53 52 53 55 53 55 57 59 51 49 55
49 49 49 48 47 47 46 46 47 48 48 47 45 45 46 46 46 46 48 48 49 52 50 49 46 45 47 55 51 47 46 45 46
52 49 48 47 47 47 47 46 47 47 48 48 46 44 44 45 46 46 45 45 45 46 50 51 48 47 47 46 45 45 45 45 45

GFSFLT1_sfc_temp_093.txt.gz
Temp
69 67 70 69 69 72 73 76 75 76 72 71 70 71 72 72 72 71 70 71 71 72 71 72 73 74 74 73 74 73 72 72 72
68 69 70 71 70 71 71 73 73 76 74 75 71 71 71 71 72 72 72 72 72 73 73 72 73 73 73 72 73 73 73 72 72
63 66 68 68 69 70 70 70 73 74 73 75 72 70 70 72 72 73 72 72 73 72 73 73 73 73 73 74 74 74 72 72 72
62 64 65 67 68 69 69 70 70 72 72 72 72 71 70 71 71 73 73 72 73 73 73 72 72 73 73 73 73 73 72 72 73
63 64 66 66 67 68 68 68 69 69 70 70 69 69 71 71 72 73 72 71 73 74 73 71 71 72 72 72 72 73 73 72 74
62 63 64 66 67 67 68 68 69 69 69 69 69 68 69 70 70 71 72 72 73 74 74 72 72 72 71 70 72 72 73 73 72
62 62 62 63 64 65 66 67 68 69 69 70 69 69 68 69 69 69 70 71 71 72 73 73 72 72 72 72 72 73 73 74 72
61 61 62 62 62 64 65 66 67 68 69 69 69 68 68 68 69 70 70 69 69 70 72 73 72 72 73 73 74 76 73 73 73
60 60 61 62 62 63 64 64 65 66 66 67 68 67 67 68 68 68 68 68 68 68 69 70 71 71 71 71 76 72 70 72 73
60 61 60 61 62 62 62 63 65 64 64 65 65 65 66 66 67 66 66 67 67 67 67 68 68 70 70 71 71 66 65 68 71
61 62 61 60 60 62 63 64 64 64 64 63 63 63 65 65 65 65 65 65 65 66 66 66 67 68 68 68 70 63 63 65 68
62 61 61 59 60 61 62 62 61 60 60 60 61 60 61 62 63 63 64 64 64 65 65 64 65 67 68 68 69 59 60 65 69
62 61 61 59 60 61 58 55 58 58 56 56 56 57 58 59 60 61 60 62 62 64 63 63 64 66 68 65 66 58 60 64 67
59 57 56 57 56 53 52 53 55 52 52 51 53 56 56 56 57 59 60 61 62 63 63 62 64 66 66 66 64 64 56 58 63
56 54 54 55 52 50 50 51 52 48 48 50 52 52 52 52 53 56 58 57 58 61 61 61 61 62 65 61 62 58 57 55 56
56 54 53 53 50 49 48 48 49 47 47 49 50 49 49 50 51 52 52 52 53 55 55 56 57 58 57 58 61 58 54 54 55
52 52 51 50 49 47 45 47 47 47 48 48 48 47 46 47 47 47 48 51 52 51 50 51 53 53 53 55 57 54 53 53 53
52 50 48 48 47 46 44 45 45 46 46 47 45 45 46 45 45 44 45 47 47 49 48 48 47 47 49 51 50 50 47 45 49
49 48 47 46 45 45 44 45 45 45 46 45 44 43 44 44 43 43 44 44 44 48 48 47 45 44 45 48 48 45 44 43 44
50 47 46 46 45 45 45 45 45 46 46 45 43 42 42 42 43 42 41 41 41 40 43 48 46 44 45 44 44 43 43 42 43

GFSFLT1_sfc_temp_096.txt.gz
Temp
71 70 72 73 71 70 71 74 76 74 72 71 71 72 72 72 72 72 71 72 74 74 73 74 76 76 76 75 75 75 75 75 76
67 70 71 72 71 70 71 73 75 75 73 73 71 72 72 72 73 72 73 74 74 74 74 75 76 76 76 75 75 76 75 75 76
66 68 69 70 70 71 71 72 74 77 75 72 72 72 72 73 73 74 74 74 74 73 73 75 75 75 75 76 75 76 75 75 75
63 66 67 68 68 70 71 71 72 73 72 71 72 72 71 72 73 74 74 74 74 75 75 74 73 74 74 74 75 76 75 75 75
64 64 65 67 68 68 69 69 70 71 70 70 72 72 72 71 72 73 73 72 74 75 75 74 72 74 74 75 75 75 75 75 76
63 64 65 65 67 67 68 68 69 69 69 69 69 70 70 71 71 72 72 73 74 75 75 74 74 73 73 72 74 74 75 75 75
63 63 65 66 66 67 68 68 69 69 69 69 69 69 69 69 69 70 70 71 72 73 74 75 74 73 74 73 74 74 74 75 75
61 62 63 64 65 65 66 67 68 69 69 69 69 68 68 68 69 69 70 69 69 70 71 72 73 74 74 75 75 77 75 76 76
61 62 62 63 64 64 65 66 67 67 66 68 69 68 68 68 68 68 67 69 69 69 69 70 70 72 72 72 74 68 68 73 76
61 61 62 62 62 63 63 64 65 64 65 66 66 66 66 67 66 66 66 67 67 67 67 68 69 70 70 70 71 63 64 66 72
60 60 60 60 61 61 59 60 61 63 64 62 62 61 63 64 66 65 65 65 65 65 65 66 67 68 69 70 68 60 61 65 71
59 59 59 59 59 59 58 59 60 60 59 61 61 60 58 61 63 62 63 64 64 64 63 63 63 66 69 66 63 59 61 66 70
60 60 59 58 59 59 58 59 61 58 57 57 56 57 58 58 59 60 60 62 63 63 62 63 64 66 66 62 63 56 57 61 63
59 58 58 59 58 55 55 55 57 55 55 54 56 58 57 56 57 58 58 59 60 61 62 62 62 61 59 58 56 54 54 55 59
54 53 54 55 53 51 52 53 54 51 50 52 53 54 54 54 54 57 58 56 56 56 58 58 58 58 60 59 58 54 54 54 54
52 52 52 53 51 49 49 51 52 50 49 51 51 51 50 51 52 53 54 54 53 54 54 55 55 56 56 57 56 55 53 53 53
52 51 50 50 50 48 48 49 50 49 50 50 50 49 49 49 50 50 51 53 53 52 52 51 52 52 52 53 52 51 51 52 53
52 51 51 50 49 48 47 49 48 49 49 49 48 48 48 48 48 49 49 50 50 51 49 50 49 48 50 49 47 47 45 45 48
52 51 49 49 48 47 46 47 47 48 48 48 47 47 47 47 47 47 47 48 48 47 47 45 44 43 46 48 45 43 42 42 42
51 49 48 48 48 47 47 47 47 47 48 48 47 45 46 47 46 46 45 45 46 45 47 46 44 43 43 42 41 41 41 41 42

GFSFLT1_sfc_temp_099.txt.gz
Temp
76 78 79 81 81 77 80 80 82 83 81 79 80 81 80 81 81 86 85 84 86 86 85 87 85 85 84 84 84 84 83 86 87
75 75 79 75 80 80 82 77 81 82 82 81 81 82 82 81 80 82 84 83 83 86 84 86 85 85 84 85 83 84 83 86 84
75 76 77 77 73 74 74 77 76 81 84 82 82 82 83 83 83 82 83 83 83 82 83 83 83 83 84 84 83 84 82 84 83
74 75 76 77 76 73 72 77 75 77 78 78 82 81 81 81 83 84 83 82 82 83 83 82 82 82 82 82 83 83 82 82 83
74 75 75 75 77 76 72 70 71 76 78 75 80 81 77 82 82 82 82 82 83 83 82 83 82 82 82 83 82 83 83 83 84
69 70 70 72 72 74 75 72 69 70 73 75 73 76 78 79 81 80 82 82 83 82 82 82 84 82 82 82 82 82 83 82 84
69 70 71 72 70 72 73 73 70 69 70 71 70 73 73 74 76 78 79 80 79 81 82 81 82 82 82 82 80 82 83 83 83
66 65 68 70 71 71 72 72 73 73 71 69 68 69 69 69 72 73 77 77 77 76 79 80 81 81 82 82 84 85 83 83 83
63 64 64 66 69 70 71 71 72 72 70 69 69 68 68 70 69 71 74 75 75 76 76 78 79 79 78 77 79 63 65 72 82
63 64 64 64 65 64 65 67 68 67 68 69 69 69 69 69 68 68 69 73 73 73 75 76 76 77 78 73 69 61 62 66 79
63 63 61 62 60 60 60 61 62 63 64 64 64 64 65 66 66 66 67 70 72 72 74 74 75 76 71 70 68 59 61 65 78
65 62 60 60 59 58 59 59 61 61 63 63 63 62 62 65 69 66 67 66 68 70 71 73 74 70 70 67 64 57 58 68 70
63 60 59 58 58 58 57 57 58 60 59 60 63 63 63 64 66 69 64 68 67 70 70 68 66 64 63 58 61 55 55 62 71
62 60 58 58 57 56 57 60 62 61 64 62 64 65 65 64 66 66 66 65 65 66 65 63 61 61 59 58 54 53 53 54 62
58 57 57 58 57 57 59 61 62 59 57 61 63 63 63 63 63 67 65 64 64 62 64 62 64 63 64 61 57 53 53 52 53
58 58 60 62 60 59 62 63 65 62 59 61 61 61 61 61 61 62 62 63 62 65 63 63 60 61 62 59 59 58 53 53 54
62 63 62 63 63 61 59 60 61 60 60 61 61 59 59 61 61 60 62 64 64 63 63 63 63 60 57 56 56 55 57 57 58
60 61 61 62 61 60 58 59 59 60 60 61 60 59 60 60 61 60 58 58 59 58 55 56 59 58 58 58 55 51 46 45 53
52 54 57 58 59 59 58 57 57 58 59 60 60 59 60 61 61 61 60 58 54 46 46 44 43 43 49 53 45 43 42 41 42
53 53 54 55 55 58 57 58 58 58 59 59 58 58 57 58 59 60 58 59 58 54 49 45 43 42 42 42 41 41 40 40 42

GFSFLT1_sfc_temp_102.txt.gz
Temp
82 82 87 91 91 91 90 91 91 90 88 85 86 87 86 85 86 89 90 90 93 91 91 92 91 90 90 89 89 90 89 91 92
81 80 83 88 91 90 90 90 90 90 88 87 87 88 87 86 87 86 89 89 88 92 89 92 89 90 89 90 90 89 88 91 89
80 78 80 83 89 90 84 92 92 89 91 88 88 88 89 89 88 88 89 88 87 88 88 88 89 89 90 90 89 89 88 90 89
83 78 81 79 79 88 90 91 87 80 90 89 89 89 89 88 89 89 88 89 89 89 88 87 88 87 88 88 87 88 87 87 89
85 83 82 79 75 74 76 78 76 78 76 84 87 89 88 85 89 89 90 88 89 89 88 88 88 88 86 88 89 87 87 88 90
82 81 83 84 83 79 79 75 71 71 73 78 79 86 87 83 86 88 88 88 89 88 88 88 90 87 88 88 88 86 87 88 88
77 77 78 81 81 80 82 81 78 72 71 73 79 81 83 86 86 88 88 88 87 88 87 86 88 89 88 89 89 88 87 88 88
72 74 75 77 76 77 78 77 78 77 70 70 71 76 74 77 80 82 84 85 86 86 87 87 86 88 88 88 90 92 88 88 87
69 71 74 77 77 77 77 77 77 76 75 73 74 70 69 70 70 74 78 79 82 83 84 85 85 85 86 87 91 63 64 73 88
70 70 72 76 77 77 78 79 77 77 75 73 74 70 70 69 70 71 71 74 78 80 81 83 82 84 82 78 77 61 63 66 84
69 67 65 64 64 65 65 69 72 72 72 73 72 71 71 73 71 69 68 69 70 73 77 80 82 78 78 76 71 59 62 67 83
69 66 63 62 63 62 61 60 63 64 64 65 66 66 68 70 68 67 66 66 69 71 74 78 76 77 74 72 67 56 57 72 77
66 64 61 59 59 59 59 58 60 59 61 62 62 65 65 68 70 72 73 74 71 70 73 68 70 72 69 62 63 54 55 67 83
63 60 59 59 58 56 57 60 60 59 58 59 63 67 71 70 69 70 72 72 73 68 64 63 66 65 58 58 57 59 53 54 72
57 55 56 57 57 56 57 59 60 58 59 63 65 69 70 70 72 74 73 70 70 67 66 65 65 65 67 65 63 54 54 53 54
56 56 56 57 58 59 58 60 61 58 61 67 68 69 68 69 70 70 70 70 66 66 70 71 71 72 71 66 69 66 55 54 56
55 56 56 60 59 57 57 60 60 62 64 67 68 67 67 68 68 68 71 74 74 74 74 74 72 71 71 70 64 62 58 63 67
59 58 61 61 60 59 58 60 61 64 64 68 68 68 68 68 70 69 66 63 64 65 57 56 71 70 70 70 69 58 48 49 57
56 58 62 61 62 61 60 61 61 62 64 67 69 68 71 72 71 70 68 64 59 45 45 44 42 42 52 57 46 43 42 41 43
56 57 55 58 62 63 62 62 62 63 65 66 66 68 67 72 68 71 68 67 65 59 50 44 43 42 42 43 42 42 41 41 43

GFSFLT1_sfc_temp_105.txt.gz
Temp
86 87 87 87 92 93 87 83 89 93 89 86 87 88 87 88 88 91 91 91 83 81 86 86 88 90 91 91 91 91 90 91 91
85 87 85 80 94 92 80 94 85 92 90 88 88 90 88 87 88 87 87 73 84 90 92 88 92 92 91 92 91 91 90 90 90
87 88 85 88 86 89 96 94 95 90 91 90 90 90 90 90 89 89 90 88 88 74 86 87 85 91 91 91 91 90 89 91 90
89 83 82 74 82 77 95 95 92 91 88 88 90 91 91 91 91 92 91 90 90 90 89 88 90 88 88 88 90 90 87 87 86
90 84 83 77 75 81 85 88 92 92 89 86 90 85 90 89 91 92 92 90 91 91 88 88 88 89 89 89 89 88 87 87 92
89 86 85 85 84 78 84 87 86 86 85 83 83 90 91 88 89 90 90 91 91 90 89 89 90 89 88 88 90 89 88 88 90
88 85 84 84 82 81 73 73 74 76 74 76 77 78 81 82 87 90 90 87 90 91 89 88 89 89 89 90 90 90 90 89 88
82 79 81 82 76 80 81 81 79 82 78 78 73 74 76 76 82 87 87 87 87 90 90 89 88 88 87 90 92 91 85 89 88
74 74 77 81 80 80 79 81 82 80 81 80 76 74 76 76 79 81 81 83 85 84 86 88 88 87 87 87 90 64 64 71 88
72 75 76 77 78 79 81 82 82 80 78 79 78 73 73 74 75 75 73 74 79 79 81 83 83 83 83 81 78 60 62 67 83
72 71 73 72 72 73 74 78 79 80 78 79 76 77 76 75 71 71 73 72 70 72 74 79 78 79 78 77 72 58 59 64 82
72 69 67 65 67 67 66 69 73 76 75 75 76 75 76 76 76 72 68 68 70 72 72 73 72 74 76 73 69 55 57 65 81
71 66 64 62 61 61 60 60 64 64 63 66 65 67 70 71 73 68 68 68 67 71 70 68 69 70 71 62 68 54 55 61 85
65 61 60 60 58 57 59 60 60 58 59 59 62 65 68 69 70 69 70 72 73 70 69 68 68 69 66 64 62 58 54 55 69
59 58 57 58 57 56 57 59 58 57 57 60 62 64 67 68 69 70 71 71 67 66 66 66 66 66 69 69 66 56 55 54 55
56 55 55 58 58 56 58 59 60 56 58 62 62 63 66 68 72 73 73 71 69 67 66 67 68 72 73 71 70 68 57 56 58
55 56 55 56 57 57 57 59 59 60 62 63 63 63 65 69 70 72 74 76 74 74 76 76 76 75 74 72 70 70 68 69 71
56 57 59 60 58 56 56 61 61 62 61 64 64 65 67 68 70 73 66 61 56 68 56 53 63 75 75 70 72 60 49 49 63
54 56 59 59 59 61 61 60 60 61 65 62 64 64 66 67 74 73 72 68 61 45 45 44 43 43 54 59 47 45 43 42 43
55 55 55 58 60 61 60 61 61 62 64 64 63 63 63 68 67 75 72 70 68 63 51 45 43 42 43 44 43 43 43 43 43

GFSFLT1_sfc_temp_108.txt.gz
Temp
77 76 80 79 88 83 82 83 80 88 84 81 83 84 83 84 84 86 81 77 74 70 72 73 83 86 86 86 86 86 86 85 84
81 82 83 84 85 81 78 85 80 78 84 84 84 85 84 84 85 86 81 78 76 74 74 74 79 85 87 86 87 87 85 84 82
82 84 85 86 84 76 78 83 88 80 78 85 85 86 85 85 85 86 84 80 73 73 71 74 72 76 88 88 84 85 86 82 81
82 85 86 86 81 79 75 84 84 85 86 86 86 87 85 85 85 86 86 85 83 76 76 77 76 78 87 87 84 83 85 82 82
83 86 88 86 81 78 75 73 81 84 86 87 88 87 86 86 86 86 86 86 84 87 84 84 84 83 83 85 86 86 83 82 82
87 86 85 84 82 72 69 68 68 73 78 78 78 81 79 80 86 87 87 84 86 86 85 84 86 85 82 83 83 81 84 83 82
85 84 82 84 85 78 72 67 67 72 75 79 78 77 79 74 81 85 86 83 85 86 85 83 85 83 81 82 83 82 85 85 83
83 82 83 83 83 83 77 74 73 72 72 77 79 78 77 74 77 82 80 82 84 84 84 83 83 85 83 84 76 72 71 80 84
80 79 81 78 81 80 79 77 77 76 77 78 79 76 76 77 76 76 75 77 81 82 81 83 84 82 83 82 70 63 64 68 80
77 78 78 77 81 79 78 79 80 78 81 81 78 76 76 77 78 77 74 75 78 75 77 79 80 80 78 72 67 60 61 65 75
71 72 69 70 74 75 78 78 77 77 79 77 77 76 77 76 74 74 73 73 76 75 72 72 72 72 72 72 64 58 59 63 73
68 64 63 63 63 64 67 68 74 76 76 76 75 76 75 76 75 73 71 69 71 71 70 70 68 68 67 68 61 56 57 63 79
64 62 61 61 61 61 60 62 66 65 65 69 69 74 73 74 74 73 72 71 68 71 70 67 65 63 63 63 62 56 56 62 72
60 59 58 59 59 58 59 60 61 60 61 60 63 65 68 70 72 72 70 69 71 69 68 67 65 63 61 61 59 58 55 56 64
58 57 57 59 57 56 58 60 59 58 58 60 62 63 64 65 68 70 68 66 64 67 66 65 64 63 66 65 63 57 56 56 56
55 55 56 57 58 57 57 58 59 57 58 61 61 61 62 64 67 68 69 66 66 65 65 64 64 66 68 67 67 65 58 58 58
54 54 55 57 57 56 55 58 58 59 61 61 61 60 62 62 62 62 61 64 67 66 61 64 67 70 70 70 67 66 63 64 65
55 56 57 58 56 55 56 59 59 59 60 62 61 61 63 62 63 63 55 54 55 58 50 49 58 57 59 63 64 54 49 49 55
54 55 58 57 58 57 57 57 57 59 63 62 60 60 62 61 62 62 63 62 56 46 46 44 43 44 54 52 48 46 44 43 43
55 56 56 57 58 59 58 59 58 61 60 61 60 62 61 63 62 65 62 63 61 60 50 45 44 43 44 43 45 44 43 43 44

GFSFLT1_sfc_temp_111.txt.gz
Temp
76 73 74 74 77 79 82 82 81 81 77 74 75 75 75 75 75 71 71 72 71 68 69 71 73 73 79 79 78 79 78 77 76
76 75 76 75 77 75 77 81 80 79 77 77 75 78 76 75 75 73 72 72 71 72 70 72 73 74 75 79 79 79 78 76 76
75 76 74 76 76 75 76 79 76 78 77 77 78 77 78 77 76 75 73 72 71 69 70 73 72 73 75 78 79 79 78 75 76
76 75 77 76 76 76 74 77 76 75 76 76 77 77 79 77 76 77 73 73 71 71 71 71 71 72 73 78 78 78 77 76 77
74 78 79 79 76 72 72 71 73 75 76 76 77 77 79 75 77 77 77 76 74 73 71 72 72 73 75 77 77 77 74 76 77
72 75 78 75 73 71 70 69 69 69 70 73 76 80 79 79 80 80 78 78 78 75 74 74 76 76 75 76 77 77 77 76 76
78 75 79 72 70 69 70 67 67 68 69 70 72 75 75 74 73 78 79 79 81 79 78 76 75 75 76 75 75 72 75 77 76
77 75 75 73 70 69 67 66 67 68 69 69 72 71 72 73 75 74 76 77 77 80 76 77 76 75 75 69 69 68 66 69 73
71 72 73 74 73 70 68 67 68 69 68 70 73 70 70 72 72 74 73 73 73 73 73 73 75 75 73 66 67 63 65 66 69
64 65 65 69 71 71 71 69 68 70 71 72 70 69 70 70 73 73 73 73 73 73 72 72 71 70 65 59 58 60 61 65 67
62 61 61 63 64 65 66 72 72 73 73 72 71 70 72 72 70 70 69 70 70 71 71 71 69 68 66 61 61 58 59 62 67
60 60 60 61 61 62 63 65 68 71 70 70 70 70 70 70 69 68 68 67 68 69 69 67 65 65 64 62 60 57 58 63 68
59 57 57 58 59 60 60 62 64 65 66 67 69 70 70 70 69 68 67 66 66 67 65 63 62 61 64 61 60 57 57 63 68
58 57 57 58 58 57 59 60 61 60 62 62 63 66 69 69 69 69 67 66 66 66 65 63 62 61 60 60 60 59 56 57 62
55 55 56 57 55 55 57 59 60 59 59 61 63 63 64 65 67 68 66 65 66 63 65 62 61 61 61 60 59 57 56 56 57
53 54 55 56 56 56 56 57 59 57 58 60 61 61 61 63 61 64 66 64 64 64 64 64 63 64 63 60 58 57 57 57 58
53 54 54 55 55 55 55 57 58 59 59 60 60 59 60 59 54 54 57 60 58 58 57 60 62 63 63 58 57 55 55 55 56
54 54 55 56 55 55 55 57 58 58 60 61 59 59 60 59 55 51 51 48 48 52 47 48 54 57 56 58 54 49 47 47 49
55 54 55 55 55 55 55 56 56 58 60 60 58 58 60 58 59 57 53 50 46 46 46 45 44 44 50 48 47 46 44 43 43
55 55 55 54 55 56 56 56 57 58 58 59 59 58 55 58 57 59 57 57 55 51 47 46 44 43 44 45 46 45 43 43 43

GFSFLT1_sfc_temp_114.txt.gz
Temp
74 74 73 72 75 77 78 78 77 78 74 71 71 72 73 72 73 71 70 70 70 70 69 70 72 73 75 76 76 76 75 74 74
74 74 73 74 74 74 77 78 77 77 75 74 72 72 73 72 72 72 71 72 72 71 69 71 72 74 75 75 76 77 75 74 74
76 74 72 75 75 73 76 79 78 76 75 75 75 74 74 75 72 72 72 71 70 69 69 70 72 73 73 74 75 76 75 74 74
73 73 74 74 75 73 74 77 77 75 74 73 73 75 73 74 72 72 71 71 70 69 69 69 71 72 72 73 75 75 74 73 74
71 73 74 75 74 71 71 73 76 75 75 75 76 76 77 73 74 73 72 72 71 70 69 70 71 71 71 72 74 74 73 74 76
71 72 74 76 72 69 71 71 72 73 73 74 72 76 74 76 75 73 73 73 71 70 70 70 71 71 71 72 74 72 72 73 72
70 74 74 76 71 70 70 70 70 70 69 69 70 71 72 72 73 74 76 76 74 72 72 71 71 72 72 72 70 70 70 71 73
65 67 68 70 70 70 69 68 69 70 70 70 70 70 70 71 72 73 73 72 72 73 73 73 73 73 69 68 67 67 66 68 70
62 63 62 68 67 67 67 67 67 68 68 70 71 70 70 70 70 71 72 73 74 73 71 70 71 70 67 65 67 62 65 66 68
62 62 62 62 66 67 66 67 67 67 66 67 70 70 70 70 71 71 71 71 72 72 70 71 68 66 63 61 60 60 61 65 66
61 61 61 61 62 63 64 66 66 68 67 67 69 69 69 70 70 69 69 70 71 71 70 70 68 65 63 60 60 59 60 63 66
57 58 60 60 61 61 63 63 66 69 68 69 68 69 69 69 69 68 68 68 68 68 68 67 66 64 61 60 61 58 59 66 64
57 57 57 58 59 60 61 60 65 66 67 68 68 68 68 69 68 68 67 67 67 66 65 63 61 60 61 60 61 57 57 65 63
57 56 56 57 57 56 59 60 62 61 62 62 65 68 69 68 68 67 66 65 65 63 62 61 59 59 60 61 60 60 56 59 63
55 54 56 57 56 56 57 59 60 59 59 61 63 64 64 65 66 67 66 65 63 63 63 61 60 59 60 60 60 57 56 56 58
54 54 54 56 56 56 56 57 59 58 59 61 61 59 58 57 56 57 59 63 63 62 62 61 61 60 58 57 59 60 55 54 56
52 54 54 56 56 55 56 57 58 59 59 60 61 59 56 55 53 51 52 53 53 54 57 61 63 63 61 60 58 56 55 56 56
53 53 55 55 55 54 55 57 58 58 60 61 58 58 57 54 51 50 49 46 48 49 46 47 55 57 62 60 57 54 48 50 52
53 53 54 54 54 55 54 52 54 57 59 59 58 58 59 56 53 51 51 49 48 46 46 45 44 45 52 50 49 46 44 43 43
54 54 51 52 53 55 55 55 56 56 56 56 55 56 57 54 56 56 54 53 52 49 48 47 46 45 45 47 46 44 43 42 43

GFSFLT1_sfc_temp_117.txt.gz
Temp
74 71 74 74 75 75 75 76 75 75 71 71 69 71 71 71 71 69 69 70 69 69 69 70 71 72 73 74 75 74 73 72 73
73 73 73 74 75 75 75 76 75 76 73 73 71 71 71 71 71 70 70 70 69 70 69 71 71 73 73 74 74 74 73 72 73
72 75 71 72 74 74 76 77 76 75 74 73 73 71 70 71 71 71 71 70 70 70 69 69 71 72 73 73 74 74 73 72 73
74 73 71 72 73 74 75 75 76 74 72 72 72 72 71 71 71 71 71 70 71 70 69 68 69 70 72 72 73 73 72 72 73
71 74 74 73 74 72 73 71 75 73 73 73 74 74 73 71 71 71 70 70 70 69 68 67 68 70 71 71 72 71 71 72 74
68 69 71 74 74 71 71 71 72 73 73 73 72 74 72 72 71 71 70 70 70 69 69 68 69 70 70 70 72 73 72 72 72
64 69 69 69 68 67 71 71 72 73 73 72 72 73 72 71 71 71 72 72 71 70 69 69 68 70 71 71 71 70 71 72 72
64 63 64 66 67 69 69 69 71 72 72 72 72 72 72 72 72 72 71 71 71 71 70 70 70 71 70 68 69 68 67 68 71
61 62 63 65 65 67 68 69 69 70 70 71 71 71 72 72 70 71 71 71 71 71 70 70 70 70 67 65 66 62 65 65 67
61 61 61 62 64 65 65 65 66 67 67 68 69 69 70 70 70 69 70 71 71 70 70 70 68 65 64 62 61 61 62 65 65
58 57 60 61 62 64 64 65 66 67 67 67 68 68 69 69 69 69 69 70 70 70 70 69 68 65 63 61 61 60 60 63 65
56 57 57 59 60 61 62 64 66 67 67 67 67 68 68 69 69 68 68 68 68 68 69 69 67 65 61 61 61 59 58 64 64
56 56 57 56 58 59 60 61 64 67 67 68 67 68 68 69 68 67 67 67 67 66 66 64 62 60 59 59 60 58 58 63 62
57 56 56 57 57 56 57 60 63 62 63 63 64 68 68 67 67 67 67 67 66 63 62 62 61 60 61 60 61 58 56 59 61
55 55 56 56 56 56 57 59 60 60 59 61 63 64 63 66 66 67 66 64 62 61 61 59 58 57 59 60 60 56 55 56 59
54 54 54 56 56 57 57 58 59 58 58 60 58 59 58 57 56 58 60 63 62 61 62 61 60 61 60 59 60 59 55 55 56
53 53 54 55 55 54 56 58 58 58 59 60 58 56 56 56 57 56 55 54 54 56 56 61 60 60 59 56 55 57 57 58 58
53 53 55 55 55 53 54 56 57 58 59 59 58 56 55 53 53 51 49 47 48 50 46 48 54 53 59 56 57 56 50 53 56
53 52 53 53 51 52 53 52 52 53 57 58 57 57 57 54 52 51 51 50 48 47 45 45 43 44 50 51 48 46 44 43 44
54 52 53 51 49 51 54 54 54 53 54 55 55 55 54 53 53 54 52 52 53 52 49 49 46 44 44 44 47 43 43 43 44

GFSFLT1_sfc_temp_120.txt.gz
Temp
71 70 72 72 73 73 73 73 74 74 71 71 70 71 71 72 72 71 71 72 71 71 71 73 75 75 76 76 77 77 76 76 77
70 72 72 73 74 74 74 74 73 74 72 72 71 72 71 71 71 71 71 72 72 73 72 73 74 75 75 76 77 77 75 75 75
72 73 72 73 74 74 74 77 77 74 73 73 73 71 72 73 72 72 72 73 71 71 72 72 73 73 75 75 75 77 76 75 76
68 70 71 72 73 74 75 76 76 74 72 72 72 72 72 72 72 72 73 72 72 72 72 71 71 72 73 73 74 76 75 75 75
68 70 70 72 72 72 71 72 76 74 72 72 73 73 72 72 72 72 72 72 72 72 71 70 71 71 72 73 74 75 74 75 77
67 69 69 70 70 70 70 71 72 73 72 73 72 72 72 72 72 72 72 72 73 72 71 71 70 70 72 73 73 74 73 73 75
66 68 70 68 68 68 69 71 70 71 72 73 72 72 72 72 72 73 73 73 73 73 72 72 70 71 72 72 73 74 74 73 74
64 64 66 67 66 68 69 69 68 70 72 72 72 72 72 72 73 73 73 72 72 72 71 72 72 71 73 72 72 70 70 72 73
60 62 63 66 67 67 68 68 69 70 71 70 72 72 72 72 71 72 72 72 72 72 72 71 71 72 72 70 68 63 65 67 70
58 59 61 63 65 65 66 66 67 66 67 69 69 69 69 70 71 71 71 72 71 71 71 70 71 69 67 65 66 62 63 65 68
57 58 58 59 60 62 65 66 66 67 67 67 68 68 69 69 69 69 69 70 70 70 70 68 68 67 65 64 63 60 60 63 67
56 57 57 57 59 60 61 62 65 67 67 67 67 67 68 68 69 68 68 68 68 69 69 69 68 66 64 63 62 59 59 64 65
57 57 57 57 58 59 59 60 63 66 66 67 67 67 68 68 69 68 68 68 68 67 68 67 65 62 62 61 61 57 57 62 64
57 56 57 58 58 57 57 60 63 64 64 63 65 67 68 68 68 68 68 67 66 65 63 61 60 58 58 56 56 58 57 59 62
55 55 56 56 57 56 57 59 60 59 59 60 63 63 63 65 67 67 66 65 62 61 61 58 57 58 57 59 60 55 57 58 59
54 54 54 56 56 57 57 57 58 57 58 59 58 59 58 57 57 58 61 63 61 59 58 56 55 56 58 58 60 59 54 55 56
53 54 54 56 55 56 55 57 58 57 58 58 57 56 55 55 56 55 55 54 55 56 59 59 58 56 55 56 53 55 59 59 59
51 52 54 56 55 54 54 56 56 58 59 59 57 55 55 54 54 52 50 48 49 50 46 49 54 55 57 55 56 53 48 52 56
52 51 54 54 53 55 55 54 53 54 57 59 58 58 56 54 52 52 51 51 48 48 47 47 44 45 50 48 47 45 44 43 44
53 53 53 51 51 54 54 54 52 54 54 55 56 57 56 55 55 55 54 54 54 52 49 46 43 43 43 46 45 43 43 43 44

GFSFLT1_sfc_temp_123.txt.gz
Temp
80 80 82 82 82 82 82 82 83 83 81 79 80 81 80 81 82 85 85 84 85 85 84 85 84 85 84 85 85 85 85 87 87
76 78 82 83 83 83 83 83 82 82 81 80 81 82 81 81 81 82 84 83 83 84 82 84 83 84 84 85 85 83 84 86 84
76 79 76 76 77 83 83 85 85 84 83 81 82 83 83 83 83 82 83 83 81 82 82 81 81 82 83 84 84 84 83 83 85
81 78 79 77 76 82 84 85 86 84 83 82 82 83 83 83 83 82 82 82 83 82 82 81 81 81 81 82 83 83 82 81 83
79 81 77 76 76 77 81 81 83 84 83 83 83 83 82 81 82 82 82 81 82 82 81 81 81 81 80 81 82 83 82 83 85
76 72 72 72 74 74 75 79 75 81 82 83 84 83 82 82 83 83 82 82 82 82 81 80 81 80 79 80 82 81 81 81 83
74 74 71 71 73 76 77 77 76 79 79 74 81 82 81 81 81 83 83 83 81 82 81 80 80 79 80 80 81 81 81 81 80
67 71 73 73 75 74 73 74 75 77 79 73 74 77 76 77 81 81 81 81 81 81 81 80 81 79 80 81 81 82 81 80 80
60 61 63 70 71 72 71 76 77 78 74 72 78 72 76 76 77 77 80 80 81 80 80 80 80 79 79 78 81 64 65 71 79
59 60 60 61 62 66 72 71 70 77 77 76 72 75 76 76 74 75 73 74 77 75 78 79 78 79 79 77 76 63 63 65 77
58 58 59 59 60 62 64 65 70 71 73 73 71 73 70 71 74 72 72 71 72 71 76 74 77 76 76 72 71 61 61 64 76
58 58 59 60 60 61 62 63 65 67 70 71 68 68 69 69 70 70 70 70 70 70 70 70 69 71 73 70 66 59 59 63 70
59 59 58 58 59 61 62 62 64 65 68 70 68 70 70 70 70 70 69 70 69 69 70 69 69 67 68 62 64 58 57 61 66
59 58 58 59 59 59 60 61 64 64 65 65 67 69 73 73 72 72 70 69 68 67 65 64 62 60 58 58 58 60 57 57 64
61 59 59 59 58 57 59 61 61 59 59 62 65 66 65 65 67 68 68 66 64 62 60 58 56 55 55 57 59 54 57 58 59
59 59 58 60 60 60 61 63 61 59 58 60 60 59 58 58 59 58 59 62 62 60 60 58 56 55 55 57 61 61 55 54 57
58 59 60 62 62 61 59 63 65 61 60 59 58 56 57 57 55 53 54 55 55 55 59 59 58 56 55 55 55 56 55 55 58
59 61 63 63 60 59 59 60 61 63 63 59 57 58 56 55 54 54 51 49 51 50 47 49 57 56 56 55 52 48 47 49 53
61 61 62 59 61 58 59 59 60 63 64 60 59 58 57 54 54 55 54 52 49 48 48 46 45 48 50 47 46 43 43 43 44
58 61 61 61 60 61 62 61 60 61 63 63 61 61 58 58 59 58 56 57 59 52 49 46 45 44 44 46 45 44 44 43 45